Observation data for Junction on 11/19/2019      Previous  Date       Current Mesonet Observations  Soil Data  Daily Summary Page  Observations in Plain Language
KJU1 190600Z 19001KT 04/03 A2999 RMK A01 T00360030  RH  096%=      5-min Rain = 0
KJU1 190601Z 19001KT 03/03 A2999 RMK A01 T00340026  RH  095%=      5-min Rain = 0
KJU1 190602Z 19001KT 03/03 A2999 RMK A01 T00320025  RH  095%=      5-min Rain = 0
KJU1 190603Z 00000KT 03/03 A2999 RMK A01 T00320025  RH  095%=      5-min Rain = 0
KJU1 190604Z 00000KT 03/03 A2999 RMK A01 T00330027  RH  096%=      5-min Rain = 0
KJU1 190605Z 00000KT 03/03 A2999 RMK A01 T00340028  RH  096%=      5-min Rain = 0
KJU1 190606Z 00000KT 03/03 A2999 RMK A01 T00340028  RH  096%=      5-min Rain = 0
KJU1 190607Z 00000KT 03/03 A2999 RMK A01 T00340028  RH  096%=      5-min Rain = 0
KJU1 190608Z 00000KT 03/03 A2999 RMK A01 T00340027  RH  096%=      5-min Rain = 0
KJU1 190609Z 00000KT 03/03 A2999 RMK A01 T00330027  RH  095%=      5-min Rain = 0
KJU1 190610Z 00000KT 03/03 A2999 RMK A01 T00330027  RH  096%=      5-min Rain = 0
KJU1 190611Z 00000KT 03/03 A2999 RMK A01 T00330027  RH  096%=      5-min Rain = 0
KJU1 190612Z 25000KT 03/03 A2999 RMK A01 T00320026  RH  096%=      5-min Rain = 0
KJU1 190613Z 26001KT 03/03 A2999 RMK A01 T00320026  RH  095%=      5-min Rain = 0
KJU1 190614Z 25001KT 03/03 A2999 RMK A01 T00330027  RH  096%=      5-min Rain = 0
KJU1 190615Z 25001KT 03/03 A2999 RMK A01 T00340029  RH  096%=      5-min Rain = 0
KJU1 190616Z 24001KT 04/03 A2999 RMK A01 T00350029  RH  096%=      5-min Rain = 0
KJU1 190617Z 23001KT 04/03 A2999 RMK A01 T00350030  RH  096%=      5-min Rain = 0
KJU1 190618Z 22001KT 04/03 A2999 RMK A01 T00360031  RH  096%=      5-min Rain = 0
KJU1 190619Z 21001KT 04/03 A2999 RMK A01 T00350030  RH  096%=      5-min Rain = 0
KJU1 190620Z 21001KT 03/03 A2999 RMK A01 T00330027  RH  096%=      5-min Rain = 0
KJU1 190621Z 21001KT 03/03 A2999 RMK A01 T00310025  RH  095%=      5-min Rain = 0
KJU1 190622Z 21001KT 03/02 A2999 RMK A01 T00290022  RH  095%=      5-min Rain = 0
KJU1 190623Z 21001KT 03/02 A2999 RMK A01 T00280021  RH  095%=      5-min Rain = 0
KJU1 190624Z 00000KT 03/02 A2999 RMK A01 T00290023  RH  096%=      5-min Rain = 0
KJU1 190625Z 00000KT 03/02 A2999 RMK A01 T00290024  RH  096%=      5-min Rain = 0
KJU1 190626Z 00000KT 03/02 A2999 RMK A01 T00300024  RH  096%=      5-min Rain = 0
KJU1 190627Z 00000KT 03/02 A2999 RMK A01 T00290024  RH  096%=      5-min Rain = 0
KJU1 190628Z 16000KT 03/03 A2999 RMK A01 T00300025  RH  096%=      5-min Rain = 0
KJU1 190629Z 16000KT 03/03 A2999 RMK A01 T00310026  RH  097%=      5-min Rain = 0
KJU1 190630Z 18001KT 03/02 A2999 RMK A01 T00290023  RH  096%=      5-min Rain = 0
KJU1 190631Z 18001KT 03/02 A2999 RMK A01 T00270021  RH  096%=      5-min Rain = 0
KJU1 190632Z 18001KT 03/02 A2999 RMK A01 T00270021  RH  096%=      5-min Rain = 0
KJU1 190633Z 18001KT 03/02 A2999 RMK A01 T00290024  RH  097%=      5-min Rain = 0
KJU1 190634Z 18001KT 03/03 A2999 RMK A01 T00310027  RH  097%=      5-min Rain = 0
KJU1 190635Z 18001KT 03/03 A2999 RMK A01 T00320027  RH  097%=      5-min Rain = 0
KJU1 190636Z 18001KT 03/03 A2999 RMK A01 T00310026  RH  097%=      5-min Rain = 0
KJU1 190637Z 18002KT 03/03 A2999 RMK A01 T00310026  RH  097%=      5-min Rain = 0
KJU1 190638Z 18002KT 03/03 A2999 RMK A01 T00310026  RH  097%=      5-min Rain = 0
KJU1 190639Z 18002KT 03/03 A2999 RMK A01 T00300025  RH  097%=      5-min Rain = 0
KJU1 190640Z 18002KT 03/03 A2999 RMK A01 T00300026  RH  097%=      5-min Rain = 0
KJU1 190641Z 19001KT 03/03 A2999 RMK A01 T00300026  RH  097%=      5-min Rain = 0
KJU1 190642Z 19002KT 03/03 A2999 RMK A01 T00310027  RH  097%=      5-min Rain = 0
KJU1 190643Z 19002KT 03/03 A2999 RMK A01 T00320028  RH  097%=      5-min Rain = 0
KJU1 190644Z 19002KT 03/03 A2999 RMK A01 T00320028  RH  097%=      5-min Rain = 0
KJU1 190645Z 20001KT 03/03 A2999 RMK A01 T00310027  RH  097%=      5-min Rain = 0
KJU1 190646Z 21001KT 03/03 A2999 RMK A01 T00300026  RH  097%=      5-min Rain = 0
KJU1 190647Z 21001KT 03/02 A2999 RMK A01 T00290024  RH  097%=      5-min Rain = 0
KJU1 190648Z 21001KT 03/02 A2999 RMK A01 T00280024  RH  097%=      5-min Rain = 0
KJU1 190649Z 20001KT 03/02 A2999 RMK A01 T00280024  RH  097%=      5-min Rain = 0
KJU1 190650Z 20001KT 03/02 A2999 RMK A01 T00280024  RH  097%=      5-min Rain = 0
KJU1 190651Z 19002KT 03/02 A2999 RMK A01 T00280024  RH  097%=      5-min Rain = 0
KJU1 190652Z 19002KT 03/02 A2999 RMK A01 T00280024  RH  097%=      5-min Rain = 0
KJU1 190653Z 19002KT 03/02 A2999 RMK A01 T00280024  RH  097%=      5-min Rain = 0
KJU1 190654Z 20002KT 03/03 A2999 RMK A01 T00290025  RH  097%=      5-min Rain = 0
KJU1 190655Z 20002KT 03/03 A2999 RMK A01 T00300026  RH  097%=      5-min Rain = 0
KJU1 190656Z 21002KT 03/03 A2999 RMK A01 T00300026  RH  097%=      5-min Rain = 0
KJU1 190657Z 21002KT 03/03 A2999 RMK A01 T00300027  RH  098%=      5-min Rain = 0
KJU1 190658Z 20002KT 03/03 A2999 RMK A01 T00310027  RH  098%=      5-min Rain = 0
KJU1 190659Z 20002KT 03/03 A2999 RMK A01 T00310027  RH  098%=      5-min Rain = 0
KJU1 190700Z 20002KT 03/03 A2999 RMK A01 T00300026  RH  097%=      5-min Rain = 0
KJU1 190701Z 21002KT 03/02 A2999 RMK A01 T00290024  RH  097%=      5-min Rain = 0
KJU1 190702Z 21002KT 03/02 A2999 RMK A01 T00270022  RH  097%=      5-min Rain = 0
KJU1 190703Z 21002KT 03/02 A2999 RMK A01 T00270023  RH  097%=      5-min Rain = 0
KJU1 190704Z 21001KT 03/02 A2999 RMK A01 T00250021  RH  097%=      5-min Rain = 0
KJU1 190705Z 21001KT 02/02 A2999 RMK A01 T00230018  RH  097%=      5-min Rain = 0
KJU1 190706Z 21001KT 02/02 A2999 RMK A01 T00220017  RH  096%=      5-min Rain = 0
KJU1 190707Z 21001KT 02/02 A2999 RMK A01 T00210016  RH  097%=      5-min Rain = 0
KJU1 190708Z 21001KT 02/02 A2999 RMK A01 T00210016  RH  097%=      5-min Rain = 0
KJU1 190709Z 21001KT 02/02 A2999 RMK A01 T00220018  RH  097%=      5-min Rain = 0
KJU1 190710Z 21001KT 02/02 A2999 RMK A01 T00230019  RH  097%=      5-min Rain = 0
KJU1 190711Z 21001KT 02/02 A2999 RMK A01 T00230020  RH  097%=      5-min Rain = 0
KJU1 190712Z 21001KT 02/02 A2999 RMK A01 T00240020  RH  097%=      5-min Rain = 0
KJU1 190713Z 21001KT 02/02 A2999 RMK A01 T00240020  RH  097%=      5-min Rain = 0
KJU1 190714Z 21001KT 02/02 A2999 RMK A01 T00230019  RH  097%=      5-min Rain = 0
KJU1 190715Z 20001KT 02/02 A2999 RMK A01 T00220018  RH  097%=      5-min Rain = 0
KJU1 190716Z 21002KT 02/02 A2999 RMK A01 T00220018  RH  097%=      5-min Rain = 0
KJU1 190717Z 21002KT 02/02 A2999 RMK A01 T00220018  RH  097%=      5-min Rain = 0
KJU1 190718Z 21002KT 02/02 A2999 RMK A01 T00220019  RH  097%=      5-min Rain = 0
KJU1 190719Z 21002KT 02/02 A2999 RMK A01 T00230019  RH  097%=      5-min Rain = 0
KJU1 190720Z 21002KT 02/02 A2999 RMK A01 T00230019  RH  097%=      5-min Rain = 0
KJU1 190721Z 21002KT 02/02 A2999 RMK A01 T00230019  RH  098%=      5-min Rain = 0
KJU1 190722Z 21002KT 02/02 A2999 RMK A01 T00230020  RH  098%=      5-min Rain = 0
KJU1 190723Z 21002KT 02/02 A2998 RMK A01 T00230020  RH  098%=      5-min Rain = 0
KJU1 190724Z 21002KT 02/02 A2998 RMK A01 T00240020  RH  098%=      5-min Rain = 0
KJU1 190725Z 22001KT 02/02 A2998 RMK A01 T00240021  RH  098%=      5-min Rain = 0
KJU1 190726Z 22002KT 02/02 A2998 RMK A01 T00230020  RH  098%=      5-min Rain = 0
KJU1 190727Z 22002KT 02/02 A2998 RMK A01 T00220018  RH  097%=      5-min Rain = 0
KJU1 190728Z 22001KT 02/02 A2998 RMK A01 T00210017  RH  097%=      5-min Rain = 0
KJU1 190729Z 22001KT 02/02 A2998 RMK A01 T00210017  RH  097%=      5-min Rain = 0
KJU1 190730Z 22001KT 02/02 A2998 RMK A01 T00210017  RH  098%=      5-min Rain = 0
KJU1 190731Z 22001KT 02/02 A2998 RMK A01 T00230020  RH  098%=      5-min Rain = 0
KJU1 190732Z 22001KT 02/02 A2998 RMK A01 T00240021  RH  098%=      5-min Rain = 0
KJU1 190733Z 23001KT 02/02 A2998 RMK A01 T00220019  RH  098%=      5-min Rain = 0
KJU1 190734Z 22001KT 02/02 A2998 RMK A01 T00200016  RH  097%=      5-min Rain = 0
KJU1 190735Z 22001KT 02/01 A2998 RMK A01 T00180014  RH  097%=      5-min Rain = 0
KJU1 190736Z 23001KT 02/02 A2998 RMK A01 T00190015  RH  097%=      5-min Rain = 0
KJU1 190737Z 23001KT 02/02 A2998 RMK A01 T00200017  RH  098%=      5-min Rain = 0
KJU1 190738Z 22000KT 02/02 A2998 RMK A01 T00210018  RH  098%=      5-min Rain = 0
KJU1 190739Z 00000KT 02/02 A2998 RMK A01 T00220019  RH  098%=      5-min Rain = 0
KJU1 190740Z 00000KT 02/02 A2998 RMK A01 T00210018  RH  098%=      5-min Rain = 0
KJU1 190741Z 00000KT 02/02 A2998 RMK A01 T00210017  RH  098%=      5-min Rain = 0
KJU1 190742Z 00000KT 02/02 A2998 RMK A01 T00210017  RH  098%=      5-min Rain = 0
KJU1 190743Z 00000KT 02/02 A2998 RMK A01 T00210018  RH  098%=      5-min Rain = 0
KJU1 190744Z 00000KT 02/02 A2998 RMK A01 T00220019  RH  098%=      5-min Rain = 0
KJU1 190745Z 00000KT 02/02 A2998 RMK A01 T00230020  RH  098%=      5-min Rain = 0
KJU1 190746Z 22000KT 02/02 A2998 RMK A01 T00230020  RH  098%=      5-min Rain = 0
KJU1 190747Z 22000KT 02/02 A2998 RMK A01 T00230020  RH  098%=      5-min Rain = 0
KJU1 190748Z 21001KT 02/02 A2998 RMK A01 T00220019  RH  098%=      5-min Rain = 0
KJU1 190749Z 19001KT 02/02 A2998 RMK A01 T00210018  RH  098%=      5-min Rain = 0
KJU1 190750Z 19000KT 02/02 A2998 RMK A01 T00210018  RH  098%=      5-min Rain = 0
KJU1 190751Z 19001KT 02/02 A2998 RMK A01 T00210018  RH  098%=      5-min Rain = 0
KJU1 190752Z 19000KT 02/02 A2998 RMK A01 T00210018  RH  098%=      5-min Rain = 0
KJU1 190753Z 19000KT 02/02 A2998 RMK A01 T00210017  RH  098%=      5-min Rain = 0
KJU1 190754Z 00000KT 02/02 A2999 RMK A01 T00200017  RH  098%=      5-min Rain = 0
KJU1 190755Z 00000KT 02/02 A2999 RMK A01 T00200016  RH  098%=      5-min Rain = 0
KJU1 190756Z 00000KT 02/02 A2999 RMK A01 T00200017  RH  098%=      5-min Rain = 0
KJU1 190757Z 00000KT 02/02 A2999 RMK A01 T00200017  RH  098%=      5-min Rain = 0
KJU1 190758Z 00000KT 02/02 A2999 RMK A01 T00200017  RH  098%=      5-min Rain = 0
KJU1 190759Z 00000KT 02/02 A2999 RMK A01 T00200017  RH  098%=      5-min Rain = 0
KJU1 190800Z 00000KT 02/02 A2999 RMK A01 T00200017  RH  098%=      5-min Rain = 0
KJU1 190801Z 00000KT 02/02 A2999 RMK A01 T00200017  RH  098%=      5-min Rain = 0
KJU1 190802Z 00000KT 02/02 A2999 RMK A01 T00200017  RH  098%=      5-min Rain = 0
KJU1 190803Z 00000KT 02/02 A2999 RMK A01 T00200017  RH  098%=      5-min Rain = 0
KJU1 190804Z 00000KT 02/02 A2999 RMK A01 T00200017  RH  098%=      5-min Rain = 0
KJU1 190805Z 00000KT 02/02 A2999 RMK A01 T00190016  RH  098%=      5-min Rain = 0
KJU1 190806Z 00000KT 02/02 A2999 RMK A01 T00190016  RH  098%=      5-min Rain = 0
KJU1 190807Z 00000KT 02/02 A2999 RMK A01 T00190015  RH  098%=      5-min Rain = 0
KJU1 190808Z 00000KT 02/02 A2999 RMK A01 T00190015  RH  098%=      5-min Rain = 0
KJU1 190809Z 00000KT 02/02 A2999 RMK A01 T00190016  RH  098%=      5-min Rain = 0
KJU1 190810Z 00000KT 02/02 A2999 RMK A01 T00200017  RH  098%=      5-min Rain = 0
KJU1 190811Z 00000KT 02/02 A2999 RMK A01 T00200018  RH  098%=      5-min Rain = 0
KJU1 190812Z 00000KT 02/02 A2999 RMK A01 T00200018  RH  098%=      5-min Rain = 0
KJU1 190813Z 21000KT 02/02 A2999 RMK A01 T00210018  RH  098%=      5-min Rain = 0
KJU1 190814Z 22001KT 02/02 A2999 RMK A01 T00200017  RH  098%=      5-min Rain = 0
KJU1 190815Z 21001KT 02/02 A2999 RMK A01 T00200017  RH  098%=      5-min Rain = 0
KJU1 190816Z 22001KT 02/02 A2999 RMK A01 T00180015  RH  098%=      5-min Rain = 0
KJU1 190817Z 22001KT 02/01 A2999 RMK A01 T00170014  RH  098%=      5-min Rain = 0
KJU1 190818Z 22001KT 02/02 A2999 RMK A01 T00180015  RH  098%=      5-min Rain = 0
KJU1 190819Z 22001KT 02/02 A2999 RMK A01 T00190017  RH  098%=      5-min Rain = 0
KJU1 190820Z 19001KT 02/02 A2999 RMK A01 T00190017  RH  098%=      5-min Rain = 0
KJU1 190821Z 18001KT 02/02 A2999 RMK A01 T00190016  RH  098%=      5-min Rain = 0
KJU1 190822Z 19001KT 02/02 A2999 RMK A01 T00180016  RH  098%=      5-min Rain = 0
KJU1 190823Z 21001KT 02/01 A2999 RMK A01 T00150012  RH  098%=      5-min Rain = 0
KJU1 190824Z 21001KT 01/01 A2999 RMK A01 T00140011  RH  098%=      5-min Rain = 0
KJU1 190825Z 22002KT 02/02 A2999 RMK A01 T00190016  RH  098%=      5-min Rain = 0
KJU1 190826Z 22002KT 02/02 A2999 RMK A01 T00220020  RH  099%=      5-min Rain = 0
KJU1 190827Z 22002KT 02/02 A2999 RMK A01 T00240023  RH  099%=      5-min Rain = 0
KJU1 190828Z 22002KT 03/02 A2999 RMK A01 T00250024  RH  099%=      5-min Rain = 0
KJU1 190829Z 22002KT 03/02 A2999 RMK A01 T00260024  RH  099%=      5-min Rain = 0
KJU1 190830Z 21002KT 03/03 A2999 RMK A01 T00260025  RH  099%=      5-min Rain = 0
KJU1 190831Z 20001KT 03/02 A2999 RMK A01 T00260024  RH  099%=      5-min Rain = 0
KJU1 190832Z 20001KT 02/02 A2999 RMK A01 T00240022  RH  099%=      5-min Rain = 0
KJU1 190833Z 20001KT 02/02 A30 RMK A01 T00230020  RH  098%=      5-min Rain = 0
KJU1 190834Z 19001KT 02/02 A30 RMK A01 T00220020  RH  098%=      5-min Rain = 0
KJU1 190835Z 19001KT 02/02 A30 RMK A01 T00220020  RH  098%=      5-min Rain = 0
KJU1 190836Z 19001KT 02/02 A30 RMK A01 T00200018  RH  098%=      5-min Rain = 0
KJU1 190837Z 19002KT 02/02 A30 RMK A01 T00190016  RH  098%=      5-min Rain = 0
KJU1 190838Z 19002KT 02/02 A30 RMK A01 T00190016  RH  098%=      5-min Rain = 0
KJU1 190839Z 19001KT 02/02 A2999 RMK A01 T00190017  RH  098%=      5-min Rain = 0
KJU1 190840Z 20001KT 02/02 A2999 RMK A01 T00210019  RH  099%=      5-min Rain = 0
KJU1 190841Z 22001KT 02/02 A2999 RMK A01 T00220020  RH  099%=      5-min Rain = 0
KJU1 190842Z 22001KT 02/02 A30 RMK A01 T00220020  RH  099%=      5-min Rain = 0
KJU1 190843Z 21001KT 02/02 A30 RMK A01 T00220020  RH  099%=      5-min Rain = 0
KJU1 190844Z 21001KT 02/02 A30 RMK A01 T00220020  RH  099%=      5-min Rain = 0
KJU1 190845Z 20002KT 02/02 A30 RMK A01 T00220020  RH  099%=      5-min Rain = 0
KJU1 190846Z 19001KT 02/02 A30 RMK A01 T00220020  RH  099%=      5-min Rain = 0
KJU1 190847Z 18001KT 02/02 A30 RMK A01 T00210018  RH  098%=      5-min Rain = 0
KJU1 190848Z 17001KT 02/02 A30 RMK A01 T00190016  RH  098%=      5-min Rain = 0
KJU1 190849Z 17001KT 02/02 A30 RMK A01 T00180015  RH  098%=      5-min Rain = 0
KJU1 190850Z 16001KT 02/02 A30 RMK A01 T00180016  RH  098%=      5-min Rain = 0
KJU1 190851Z 16002KT 02/02 A30 RMK A01 T00190017  RH  099%=      5-min Rain = 0
KJU1 190852Z 16002KT 02/02 A2999 RMK A01 T00190017  RH  099%=      5-min Rain = 0
KJU1 190853Z 16001KT 02/02 A30 RMK A01 T00200017  RH  099%=      5-min Rain = 0
KJU1 190854Z 16002KT 02/02 A30 RMK A01 T00200018  RH  099%=      5-min Rain = 0
KJU1 190855Z 17002KT 02/02 A2999 RMK A01 T00200018  RH  099%=      5-min Rain = 0
KJU1 190856Z 16001KT 02/02 A2999 RMK A01 T00200019  RH  099%=      5-min Rain = 0
KJU1 190857Z 18000KT 02/02 A2999 RMK A01 T00210019  RH  099%=      5-min Rain = 0
KJU1 190858Z 00000KT 02/02 A30 RMK A01 T00220020  RH  099%=      5-min Rain = 0
KJU1 190859Z 00000KT 02/02 A30 RMK A01 T00210019  RH  099%=      5-min Rain = 0
KJU1 190900Z 00000KT 02/02 A30 RMK A01 T00200018  RH  099%=      5-min Rain = 0
KJU1 190901Z 00000KT 02/02 A30 RMK A01 T00200018  RH  099%=      5-min Rain = 0
KJU1 190902Z 00000KT 02/02 A30 RMK A01 T00200018  RH  099%=      5-min Rain = 0
KJU1 190903Z 00000KT 02/02 A2999 RMK A01 T00210020  RH  099%=      5-min Rain = 0
KJU1 190904Z 00000KT 02/02 A2999 RMK A01 T00220020  RH  099%=      5-min Rain = 0
KJU1 190905Z 00000KT 02/02 A2999 RMK A01 T00230022  RH  099%=      5-min Rain = 0
KJU1 190906Z 00000KT 02/02 A2999 RMK A01 T00240022  RH  099%=      5-min Rain = 0
KJU1 190907Z 00000KT 03/02 A2999 RMK A01 T00250023  RH  099%=      5-min Rain = 0
KJU1 190908Z 00000KT 02/02 A2999 RMK A01 T00240022  RH  099%=      5-min Rain = 0
KJU1 190909Z 00000KT 02/02 A2999 RMK A01 T00220020  RH  099%=      5-min Rain = 0
KJU1 190910Z 00000KT 02/02 A2999 RMK A01 T00200018  RH  098%=      5-min Rain = 0
KJU1 190911Z 00000KT 02/02 A2999 RMK A01 T00190016  RH  098%=      5-min Rain = 0
KJU1 190912Z 00000KT 02/02 A2999 RMK A01 T00180016  RH  098%=      5-min Rain = 0
KJU1 190913Z 00000KT 02/02 A2999 RMK A01 T00190017  RH  099%=      5-min Rain = 0
KJU1 190914Z 00000KT 02/02 A2999 RMK A01 T00190017  RH  099%=      5-min Rain = 0
KJU1 190915Z 00000KT 02/02 A2999 RMK A01 T00200018  RH  099%=      5-min Rain = 0
KJU1 190916Z 00000KT 02/02 A2999 RMK A01 T00200018  RH  099%=      5-min Rain = 0
KJU1 190917Z 00000KT 02/02 A2999 RMK A01 T00200018  RH  099%=      5-min Rain = 0
KJU1 190918Z 00000KT 02/02 A2999 RMK A01 T00180016  RH  098%=      5-min Rain = 0
KJU1 190919Z 00000KT 02/01 A2999 RMK A01 T00160013  RH  098%=      5-min Rain = 0
KJU1 190920Z 00000KT 02/01 A2999 RMK A01 T00160013  RH  098%=      5-min Rain = 0
KJU1 190921Z 00000KT 02/01 A2999 RMK A01 T00160014  RH  098%=      5-min Rain = 0
KJU1 190922Z 00000KT 02/01 A2999 RMK A01 T00160014  RH  098%=      5-min Rain = 0
KJU1 190923Z 00000KT 02/01 A2999 RMK A01 T00170014  RH  099%=      5-min Rain = 0
KJU1 190924Z 00000KT 02/02 A2999 RMK A01 T00170015  RH  099%=      5-min Rain = 0
KJU1 190925Z 00000KT 02/02 A2999 RMK A01 T00170015  RH  099%=      5-min Rain = 0
KJU1 190926Z 00000KT 02/02 A2999 RMK A01 T00170015  RH  098%=      5-min Rain = 0
KJU1 190927Z 00000KT 02/01 A2999 RMK A01 T00160014  RH  098%=      5-min Rain = 0
KJU1 190928Z 00000KT 02/01 A2999 RMK A01 T00150012  RH  098%=      5-min Rain = 0
KJU1 190929Z 00000KT 01/01 A2999 RMK A01 T00140012  RH  098%=      5-min Rain = 0
KJU1 190930Z 00000KT 01/01 A2999 RMK A01 T00130010  RH  098%=      5-min Rain = 0
KJU1 190931Z 00000KT 01/01 A2999 RMK A01 T00120009  RH  098%=      5-min Rain = 0
KJU1 190932Z 00000KT 01/01 A2999 RMK A01 T00120009  RH  098%=      5-min Rain = 0
KJU1 190933Z 00000KT 01/01 A2999 RMK A01 T00120009  RH  098%=      5-min Rain = 0
KJU1 190934Z 00000KT 01/01 A2999 RMK A01 T00120009  RH  098%=      5-min Rain = 0
KJU1 190935Z 29000KT 01/01 A2999 RMK A01 T00110009  RH  098%=      5-min Rain = 0
KJU1 190936Z 29001KT 01/01 A2999 RMK A01 T00110008  RH  098%=      5-min Rain = 0
KJU1 190937Z 29000KT 01/01 A2999 RMK A01 T00110008  RH  098%=      5-min Rain = 0
KJU1 190938Z 29000KT 01/01 A2999 RMK A01 T00120010  RH  098%=      5-min Rain = 0
KJU1 190939Z 00000KT 01/01 A2999 RMK A01 T00120010  RH  098%=      5-min Rain = 0
KJU1 190940Z 00000KT 01/01 A2999 RMK A01 T00120010  RH  098%=      5-min Rain = 0
KJU1 190941Z 00000KT 01/01 A2999 RMK A01 T00120009  RH  098%=      5-min Rain = 0
KJU1 190942Z 00000KT 01/01 A2999 RMK A01 T00110009  RH  098%=      5-min Rain = 0
KJU1 190943Z 00000KT 01/01 A2999 RMK A01 T00100007  RH  098%=      5-min Rain = 0
KJU1 190944Z 00000KT 01/01 A2999 RMK A01 T00080005  RH  098%=      5-min Rain = 0
KJU1 190945Z 23001KT 01/01 A2999 RMK A01 T00080005  RH  098%=      5-min Rain = 0
KJU1 190946Z 22001KT 01/01 A2999 RMK A01 T00090007  RH  098%=      5-min Rain = 0
KJU1 190947Z 22001KT 01/01 A2999 RMK A01 T00100008  RH  099%=      5-min Rain = 0
KJU1 190948Z 22001KT 01/01 A2999 RMK A01 T00110010  RH  099%=      5-min Rain = 0
KJU1 190949Z 22001KT 01/01 A2999 RMK A01 T00110009  RH  099%=      5-min Rain = 0
KJU1 190950Z 22001KT 01/01 A2999 RMK A01 T00110008  RH  098%=      5-min Rain = 0
KJU1 190951Z 22001KT 01/01 A2999 RMK A01 T00100008  RH  098%=      5-min Rain = 0
KJU1 190952Z 22001KT 01/01 A2999 RMK A01 T00100007  RH  098%=      5-min Rain = 0
KJU1 190953Z 22001KT 01/01 A2999 RMK A01 T00090007  RH  098%=      5-min Rain = 0
KJU1 190954Z 22000KT 01/01 A2999 RMK A01 T00090007  RH  098%=      5-min Rain = 0
KJU1 190955Z 00000KT 01/01 A2999 RMK A01 T00080006  RH  098%=      5-min Rain = 0
KJU1 190956Z 00000KT 01/01 A2999 RMK A01 T00080006  RH  098%=      5-min Rain = 0
KJU1 190957Z 00000KT 01/01 A2999 RMK A01 T00080006  RH  098%=      5-min Rain = 0
KJU1 190958Z 00000KT 01/01 A2999 RMK A01 T00100008  RH  099%=      5-min Rain = 0
KJU1 190959Z 00000KT 01/01 A2999 RMK A01 T00100008  RH  099%=      5-min Rain = 0
KJU1 191000Z 00000KT 01/01 A2999 RMK A01 T00090007  RH  098%=      5-min Rain = 0
KJU1 191001Z 00000KT 01/01 A2999 RMK A01 T00080006  RH  098%=      5-min Rain = 0
KJU1 191002Z 00000KT 01/01 A2999 RMK A01 T00070005  RH  098%=      5-min Rain = 0
KJU1 191003Z 00000KT 01/01 A2999 RMK A01 T00080006  RH  098%=      5-min Rain = 0
KJU1 191004Z 00000KT 01/01 A2999 RMK A01 T00080006  RH  098%=      5-min Rain = 0
KJU1 191005Z 00000KT 01/01 A2999 RMK A01 T00080006  RH  098%=      5-min Rain = 0
KJU1 191006Z 00000KT 01/01 A2999 RMK A01 T00070005  RH  098%=      5-min Rain = 0
KJU1 191007Z 00000KT 01/00 A2999 RMK A01 T00060003  RH  098%=      5-min Rain = 0
KJU1 191008Z 00000KT 01/00 A2999 RMK A01 T00050002  RH  098%=      5-min Rain = 0
KJU1 191009Z 00000KT 00/00 A2999 RMK A01 T00040001  RH  098%=      5-min Rain = 0
KJU1 191010Z 00000KT 00/00 A2999 RMK A01 T00040001  RH  098%=      5-min Rain = 0
KJU1 191011Z 00000KT 00/00 A2999 RMK A01 T00040001  RH  098%=      5-min Rain = 0
KJU1 191012Z 00000KT 00/00 A2999 RMK A01 T00040001  RH  098%=      5-min Rain = 0
KJU1 191013Z 00000KT 00/00 A2999 RMK A01 T00040001  RH  098%=      5-min Rain = 0
KJU1 191014Z 00000KT 00/00 A2999 RMK A01 T00040001  RH  098%=      5-min Rain = 0
KJU1 191015Z 00000KT 00/00 A2999 RMK A01 T00040001  RH  098%=      5-min Rain = 0
KJU1 191016Z 00000KT 00/00 A2999 RMK A01 T00040001  RH  098%=      5-min Rain = 0
KJU1 191017Z 00000KT 00/00 A2999 RMK A01 T00040002  RH  098%=      5-min Rain = 0
KJU1 191018Z 00000KT 00/00 A2999 RMK A01 T00040002  RH  098%=      5-min Rain = 0
KJU1 191019Z 00000KT 00/00 A2999 RMK A01 T00040002  RH  098%=      5-min Rain = 0
KJU1 191020Z 00000KT 00/00 A2999 RMK A01 T00040002  RH  098%=      5-min Rain = 0
KJU1 191021Z 22001KT 00/00 A2999 RMK A01 T00040002  RH  098%=      5-min Rain = 0
KJU1 191022Z 22001KT 00/00 A2999 RMK A01 T00040002  RH  098%=      5-min Rain = 0
KJU1 191023Z 22001KT 01/00 A2999 RMK A01 T00050003  RH  099%=      5-min Rain = 0
KJU1 191024Z 21001KT 01/00 A2999 RMK A01 T00060004  RH  099%=      5-min Rain = 0
KJU1 191025Z 21001KT 01/01 A2999 RMK A01 T00070005  RH  099%=      5-min Rain = 0
KJU1 191026Z 21001KT 01/00 A2999 RMK A01 T00060004  RH  098%=      5-min Rain = 0
KJU1 191027Z 21000KT 01/00 A2999 RMK A01 T00050003  RH  098%=      5-min Rain = 0
KJU1 191028Z 21000KT 00/00 A2999 RMK A01 T00040001  RH  098%=      5-min Rain = 0
KJU1 191029Z 21001KT 00/00 A2999 RMK A01 T00030000  RH  098%=      5-min Rain = 0
KJU1 191030Z 21001KT 00/M00 A2999 RMK A01 T00021001  RH  098%=      5-min Rain = 0
KJU1 191031Z 21000KT 00/00 A2999 RMK A01 T00030000  RH  098%=      5-min Rain = 0
KJU1 191032Z 00000KT 01/00 A2999 RMK A01 T00050002  RH  098%=      5-min Rain = 0
KJU1 191033Z 00000KT 01/00 A2999 RMK A01 T00050003  RH  098%=      5-min Rain = 0
KJU1 191034Z 00000KT 01/00 A2999 RMK A01 T00050003  RH  098%=      5-min Rain = 0
KJU1 191035Z 00000KT 01/00 A2999 RMK A01 T00050003  RH  098%=      5-min Rain = 0
KJU1 191036Z 00000KT 01/00 A2999 RMK A01 T00050002  RH  098%=      5-min Rain = 0
KJU1 191037Z 00000KT 01/00 A2999 RMK A01 T00050002  RH  098%=      5-min Rain = 0
KJU1 191038Z 00000KT 00/00 A2999 RMK A01 T00040002  RH  098%=      5-min Rain = 0
KJU1 191039Z 00000KT 00/00 A2999 RMK A01 T00040001  RH  098%=      5-min Rain = 0
KJU1 191040Z 00000KT 00/00 A2999 RMK A01 T00040001  RH  098%=      5-min Rain = 0
KJU1 191041Z 00000KT 01/00 A2999 RMK A01 T00050003  RH  098%=      5-min Rain = 0
KJU1 191042Z 00000KT 01/00 A2999 RMK A01 T00060003  RH  098%=      5-min Rain = 0
KJU1 191043Z 00000KT 01/00 A2999 RMK A01 T00060004  RH  098%=      5-min Rain = 0
KJU1 191044Z 00000KT 01/01 A2999 RMK A01 T00070005  RH  099%=      5-min Rain = 0
KJU1 191045Z 00000KT 01/01 A2999 RMK A01 T00080006  RH  099%=      5-min Rain = 0
KJU1 191046Z 00000KT 01/01 A2999 RMK A01 T00090007  RH  099%=      5-min Rain = 0
KJU1 191047Z 00000KT 01/01 A2999 RMK A01 T00090008  RH  099%=      5-min Rain = 0
KJU1 191048Z 00000KT 01/01 A2999 RMK A01 T00100008  RH  099%=      5-min Rain = 0
KJU1 191049Z 00000KT 01/01 A2999 RMK A01 T00090007  RH  098%=      5-min Rain = 0
KJU1 191050Z 00000KT 01/01 A2999 RMK A01 T00080005  RH  098%=      5-min Rain = 0
KJU1 191051Z 00000KT 01/00 A2999 RMK A01 T00070004  RH  098%=      5-min Rain = 0
KJU1 191052Z 00000KT 01/00 A2999 RMK A01 T00050002  RH  098%=      5-min Rain = 0
KJU1 191053Z 00000KT 00/00 A2999 RMK A01 T00040002  RH  098%=      5-min Rain = 0
KJU1 191054Z 00000KT 00/00 A2999 RMK A01 T00040002  RH  098%=      5-min Rain = 0
KJU1 191055Z 00000KT 01/00 A2999 RMK A01 T00050003  RH  098%=      5-min Rain = 0
KJU1 191056Z 00000KT 01/00 A2999 RMK A01 T00060004  RH  099%=      5-min Rain = 0
KJU1 191057Z 00000KT 01/00 A2999 RMK A01 T00060004  RH  099%=      5-min Rain = 0
KJU1 191058Z 22000KT 01/00 A2999 RMK A01 T00060004  RH  098%=      5-min Rain = 0
KJU1 191059Z 22001KT 01/00 A2999 RMK A01 T00060003  RH  098%=      5-min Rain = 0
KJU1 191100Z 22000KT 01/00 A2999 RMK A01 T00050003  RH  099%=      5-min Rain = 0
KJU1 191101Z 22001KT 01/00 A2999 RMK A01 T00060003  RH  099%=      5-min Rain = 0
KJU1 191102Z 22001KT 01/00 A2999 RMK A01 T00060004  RH  099%=      5-min Rain = 0
KJU1 191103Z 22001KT 00/00 A2999 RMK A01 T00040001  RH  098%=      5-min Rain = 0
KJU1 191104Z 22001KT 00/M00 A2999 RMK A01 T00021001  RH  098%=      5-min Rain = 0
KJU1 191105Z 22001KT 00/M00 A2999 RMK A01 T00021001  RH  098%=      5-min Rain = 0
KJU1 191106Z 22001KT 00/00 A2999 RMK A01 T000200-0  RH  098%=      5-min Rain = 0
KJU1 191107Z 22001KT 00/00 A2999 RMK A01 T00030002  RH  099%=      5-min Rain = 0
KJU1 191108Z 22001KT 00/00 A30 RMK A01 T00040003  RH  099%=      5-min Rain = 0
KJU1 191109Z 22001KT 01/00 A30 RMK A01 T00060004  RH  099%=      5-min Rain = 0
KJU1 191110Z 22001KT 01/01 A30 RMK A01 T00070005  RH  099%=      5-min Rain = 0
KJU1 191111Z 22001KT 01/01 A30 RMK A01 T00080006  RH  099%=      5-min Rain = 0
KJU1 191112Z 23001KT 01/01 A30 RMK A01 T00080006  RH  099%=      5-min Rain = 0
KJU1 191113Z 23001KT 01/01 A30 RMK A01 T00080006  RH  099%=      5-min Rain = 0
KJU1 191114Z 23000KT 01/01 A30 RMK A01 T00080006  RH  099%=      5-min Rain = 0
KJU1 191115Z 00000KT 01/01 A30 RMK A01 T00070005  RH  099%=      5-min Rain = 0
KJU1 191116Z 00000KT 00/00 A30 RMK A01 T00040002  RH  098%=      5-min Rain = 0
KJU1 191117Z 00000KT 00/00 A30 RMK A01 T00030001  RH  098%=      5-min Rain = 0
KJU1 191118Z 00000KT 00/00 A30 RMK A01 T00030001  RH  099%=      5-min Rain = 0
KJU1 191119Z 00000KT 00/00 A30 RMK A01 T00030002  RH  099%=      5-min Rain = 0
KJU1 191120Z 00000KT 00/00 A30 RMK A01 T00040003  RH  099%=      5-min Rain = 0
KJU1 191121Z 00000KT 01/00 A30 RMK A01 T00050004  RH  099%=      5-min Rain = 0
KJU1 191122Z 00000KT 01/00 A30 RMK A01 T00060004  RH  099%=      5-min Rain = 0
KJU1 191123Z 23001KT 00/00 A30 RMK A01 T00040002  RH  099%=      5-min Rain = 0
KJU1 191124Z 23000KT 00/00 A2999 RMK A01 T00030001  RH  099%=      5-min Rain = 0
KJU1 191125Z 23000KT 00/00 A2999 RMK A01 T00040002  RH  099%=      5-min Rain = 0
KJU1 191126Z 23000KT 01/00 A2999 RMK A01 T00050004  RH  099%=      5-min Rain = 0
KJU1 191127Z 23000KT 01/01 A2999 RMK A01 T00070005  RH  099%=      5-min Rain = 0
KJU1 191128Z 00000KT 01/01 A2999 RMK A01 T00070006  RH  099%=      5-min Rain = 0
KJU1 191129Z 00000KT 01/01 A2999 RMK A01 T00070006  RH  099%=      5-min Rain = 0
KJU1 191130Z 00000KT 01/01 A2999 RMK A01 T00060005  RH  099%=      5-min Rain = 0
KJU1 191131Z 00000KT 01/00 A2999 RMK A01 T00050003  RH  099%=      5-min Rain = 0
KJU1 191132Z 00000KT 00/00 A2999 RMK A01 T00020000  RH  099%=      5-min Rain = 0
KJU1 191133Z 00000KT 00/M00 A2999 RMK A01 T00011001  RH  098%=      5-min Rain = 0
KJU1 191134Z 00000KT 00/M00 A30 RMK A01 T00011001  RH  099%=      5-min Rain = 0
KJU1 191135Z 00000KT 00/M00 A30 RMK A01 T00011001  RH  099%=      5-min Rain = 0
KJU1 191136Z 00000KT 00/M00 A30 RMK A01 T00011001  RH  099%=      5-min Rain = 0
KJU1 191137Z 00000KT 00/00 A30 RMK A01 T00020000  RH  099%=      5-min Rain = 0
KJU1 191138Z 00000KT 00/00 A30 RMK A01 T00040002  RH  099%=      5-min Rain = 0
KJU1 191139Z 00000KT 01/00 A30 RMK A01 T00050003  RH  099%=      5-min Rain = 0
KJU1 191140Z 00000KT 01/00 A30 RMK A01 T00050004  RH  099%=      5-min Rain = 0
KJU1 191141Z 00000KT 01/00 A30 RMK A01 T00050003  RH  099%=      5-min Rain = 0
KJU1 191142Z 00000KT 00/00 A30 RMK A01 T00040003  RH  099%=      5-min Rain = 0
KJU1 191143Z 28000KT 01/00 A30 RMK A01 T00050003  RH  099%=      5-min Rain = 0
KJU1 191144Z 29001KT 01/00 A30 RMK A01 T00060004  RH  099%=      5-min Rain = 0
KJU1 191145Z 29001KT 01/00 A30 RMK A01 T00050004  RH  099%=      5-min Rain = 0
KJU1 191146Z 29000KT 00/00 A30 RMK A01 T00040003  RH  099%=      5-min Rain = 0
KJU1 191147Z 00000KT 00/00 A30 RMK A01 T00020000  RH  099%=      5-min Rain = 0
KJU1 191148Z 00000KT 00/00 A30 RMK A01 T000000-2  RH  099%=      5-min Rain = 0
KJU1 191149Z 20001KT 00/M00 A30 RMK A01 T00011001  RH  099%=      5-min Rain = 0
KJU1 191150Z 19001KT 00/00 A30 RMK A01 T00030002  RH  099%=      5-min Rain = 0
KJU1 191151Z 18002KT 00/00 A30 RMK A01 T00030002  RH  099%=      5-min Rain = 0
KJU1 191152Z 18002KT 00/M00 A30 RMK A01 T00011001  RH  099%=      5-min Rain = 0
KJU1 191153Z 18002KT M00/M00 A30 RMK A01 T10021004  RH  099%=      5-min Rain = 0
KJU1 191154Z 19002KT M00/M01 A30 RMK A01 T10031005  RH  098%=      5-min Rain = 0
KJU1 191155Z 20002KT M00/M01 A30 RMK A01 T10031005  RH  098%=      5-min Rain = 0
KJU1 191156Z 22002KT M00/M01 A30 RMK A01 T10031005  RH  099%=      5-min Rain = 0
KJU1 191157Z 23002KT M00/M00 A30 RMK A01 T10011003  RH  099%=      5-min Rain = 0
KJU1 191158Z 23002KT 00/M00 A30 RMK A01 T00011001  RH  099%=      5-min Rain = 0
KJU1 191159Z 23002KT 00/00 A30 RMK A01 T00030002  RH  099%=      5-min Rain = 0
KJU1 191200Z 24001KT 01/01 A30 RMK A01 T00060005  RH  099%=      5-min Rain = 0
KJU1 191201Z 24001KT 01/01 A30 RMK A01 T00060005  RH  099%=      5-min Rain = 0
KJU1 191202Z 24000KT 01/00 A30 RMK A01 T00050004  RH  099%=      5-min Rain = 0
KJU1 191203Z 00000KT 00/00 A30 RMK A01 T00030002  RH  099%=      5-min Rain = 0
KJU1 191204Z 00000KT 00/00 A30 RMK A01 T00020000  RH  099%=      5-min Rain = 0
KJU1 191205Z 19001KT 00/00 A30 RMK A01 T00030002  RH  099%=      5-min Rain = 0
KJU1 191206Z 19001KT 01/00 A30 RMK A01 T00050004  RH  099%=      5-min Rain = 0
KJU1 191207Z 19001KT 01/00 A30 RMK A01 T00050004  RH  099%=      5-min Rain = 0
KJU1 191208Z 19001KT 00/00 A30 RMK A01 T00020000  RH  099%=      5-min Rain = 0
KJU1 191209Z 19001KT M00/M00 A30 RMK A01 T10011003  RH  099%=      5-min Rain = 0
KJU1 191210Z 19001KT M00/M00 A30 RMK A01 T10021004  RH  099%=      5-min Rain = 0
KJU1 191211Z 20000KT M00/M01 A30 RMK A01 T10031005  RH  099%=      5-min Rain = 0
KJU1 191212Z 00000KT M00/M00 A30 RMK A01 T10021003  RH  099%=      5-min Rain = 0
KJU1 191213Z 00000KT 00/00 A30 RMK A01 T000000-1  RH  099%=      5-min Rain = 0
KJU1 191214Z 00000KT 00/00 A30 RMK A01 T000100-0  RH  099%=      5-min Rain = 0
KJU1 191215Z 25001KT 00/00 A30 RMK A01 T00020000  RH  099%=      5-min Rain = 0
KJU1 191216Z 25000KT 00/00 A30 RMK A01 T00020001  RH  099%=      5-min Rain = 0
KJU1 191217Z 00000KT 00/00 A30 RMK A01 T00030002  RH  099%=      5-min Rain = 0
KJU1 191218Z 00000KT 00/00 A30 RMK A01 T00040003  RH  099%=      5-min Rain = 0
KJU1 191219Z 00000KT 00/00 A30 RMK A01 T00040003  RH  099%=      5-min Rain = 0
KJU1 191220Z 00000KT 00/00 A3001 RMK A01 T00040003  RH  099%=      5-min Rain = 0
KJU1 191221Z 00000KT 00/00 A3001 RMK A01 T00020001  RH  099%=      5-min Rain = 0
KJU1 191222Z 00000KT 00/00 A3001 RMK A01 T000000-1  RH  099%=      5-min Rain = 0
KJU1 191223Z 00000KT M00/M00 A3001 RMK A01 T10011002  RH  099%=      5-min Rain = 0
KJU1 191224Z 00000KT M00/M00 A3001 RMK A01 T10021004  RH  099%=      5-min Rain = 0
KJU1 191225Z 00000KT M00/M00 A3001 RMK A01 T10021004  RH  099%=      5-min Rain = 0
KJU1 191226Z 00000KT M00/M00 A3001 RMK A01 T10021004  RH  099%=      5-min Rain = 0
KJU1 191227Z 00000KT M00/M00 A3001 RMK A01 T10011003  RH  099%=      5-min Rain = 0
KJU1 191228Z 00000KT 00/00 A3001 RMK A01 T000000-1  RH  099%=      5-min Rain = 0
KJU1 191229Z 00000KT 00/M00 A3001 RMK A01 T00011001  RH  099%=      5-min Rain = 0
KJU1 191230Z 00000KT 00/M00 A3001 RMK A01 T00011001  RH  099%=      5-min Rain = 0
KJU1 191231Z 00000KT M00/M00 A3001 RMK A01 T10011002  RH  099%=      5-min Rain = 0
KJU1 191232Z 00000KT M00/M00 A3001 RMK A01 T10011003  RH  099%=      5-min Rain = 0
KJU1 191233Z 00000KT M00/M00 A3001 RMK A01 T10011002  RH  099%=      5-min Rain = 0
KJU1 191234Z 00000KT 00/00 A3001 RMK A01 T000000-1  RH  099%=      5-min Rain = 0
KJU1 191235Z 00000KT 00/M00 A3001 RMK A01 T00011001  RH  099%=      5-min Rain = 0
KJU1 191236Z 00000KT 00/00 A3001 RMK A01 T000100-0  RH  099%=      5-min Rain = 0
KJU1 191237Z 00000KT 00/00 A3001 RMK A01 T00-000-2  RH  099%=      5-min Rain = 0
KJU1 191238Z 00000KT M00/M00 A3001 RMK A01 T10021004  RH  099%=      5-min Rain = 0
KJU1 191239Z 00000KT M00/M00 A3001 RMK A01 T10021004  RH  099%=      5-min Rain = 0
KJU1 191240Z 00000KT M00/M00 A3001 RMK A01 T10021004  RH  099%=      5-min Rain = 0
KJU1 191241Z 20001KT 00/00 A3001 RMK A01 T00-000-2  RH  099%=      5-min Rain = 0
KJU1 191242Z 21001KT 00/00 A3001 RMK A01 T00020001  RH  099%=      5-min Rain = 0
KJU1 191243Z 23001KT 00/00 A3001 RMK A01 T00020001  RH  099%=      5-min Rain = 0
KJU1 191244Z 24001KT 00/00 A3001 RMK A01 T00040003  RH  099%=      5-min Rain = 0
KJU1 191245Z 24001KT 01/00 A3001 RMK A01 T00050004  RH  099%=      5-min Rain = 0
KJU1 191246Z 24001KT 01/01 A3001 RMK A01 T00060005  RH  099%=      5-min Rain = 0
KJU1 191247Z 24001KT 01/01 A3001 RMK A01 T00060005  RH  099%=      5-min Rain = 0
KJU1 191248Z 24000KT 01/01 A3001 RMK A01 T00060005  RH  099%=      5-min Rain = 0
KJU1 191249Z 24000KT 00/00 A3001 RMK A01 T00040003  RH  099%=      5-min Rain = 0
KJU1 191250Z 00000KT 00/00 A3001 RMK A01 T00020001  RH  099%=      5-min Rain = 0
KJU1 191251Z 00000KT 00/00 A3001 RMK A01 T00-000-2  RH  099%=      5-min Rain = 0
KJU1 191252Z 00000KT M00/M00 A3001 RMK A01 T10011003  RH  099%=      5-min Rain = 0
KJU1 191253Z 00000KT M00/M00 A3001 RMK A01 T10011003  RH  099%=      5-min Rain = 0
KJU1 191254Z 00000KT M00/M00 A3001 RMK A01 T10011002  RH  099%=      5-min Rain = 0
KJU1 191255Z 24000KT M00/M00 A3001 RMK A01 T10011003  RH  099%=      5-min Rain = 0
KJU1 191256Z 24000KT M00/M00 A3001 RMK A01 T10021003  RH  099%=      5-min Rain = 0
KJU1 191257Z 25000KT M00/M00 A3001 RMK A01 T10021003  RH  099%=      5-min Rain = 0
KJU1 191258Z 00000KT M00/M00 A3001 RMK A01 T10011003  RH  099%=      5-min Rain = 0
KJU1 191259Z 00000KT 00/00 A3001 RMK A01 T00-000-1  RH  099%=      5-min Rain = 0
KJU1 191300Z 00000KT 00/00 A3001 RMK A01 T00010000  RH  099%=      5-min Rain = 0
KJU1 191301Z 00000KT 00/00 A3001 RMK A01 T00020001  RH  099%=      5-min Rain = 0
KJU1 191302Z 00000KT 00/00 A3001 RMK A01 T00020001  RH  099%=      5-min Rain = 0
KJU1 191303Z 00000KT 00/00 A3001 RMK A01 T00020001  RH  099%=      5-min Rain = 0
KJU1 191304Z 00000KT 00/00 A3001 RMK A01 T00020000  RH  099%=      5-min Rain = 0
KJU1 191305Z 34000KT 00/00 A3001 RMK A01 T00-000-2  RH  099%=      5-min Rain = 0
KJU1 191306Z 00000KT M00/M00 A3001 RMK A01 T10011002  RH  099%=      5-min Rain = 0
KJU1 191307Z 00000KT M00/M00 A3001 RMK A01 T10011003  RH  099%=      5-min Rain = 0
KJU1 191308Z 00000KT M00/M00 A3001 RMK A01 T10021004  RH  099%=      5-min Rain = 0
KJU1 191309Z 00000KT M00/M00 A3001 RMK A01 T10021004  RH  099%=      5-min Rain = 0
KJU1 191310Z 00000KT M00/M00 A3001 RMK A01 T10021004  RH  099%=      5-min Rain = 0
KJU1 191311Z 00000KT M00/M00 A3001 RMK A01 T10021004  RH  099%=      5-min Rain = 0
KJU1 191312Z 00000KT M00/M00 A3001 RMK A01 T10021003  RH  099%=      5-min Rain = 0
KJU1 191313Z 00000KT M00/M00 A3001 RMK A01 T10021003  RH  099%=      5-min Rain = 0
KJU1 191314Z 00000KT M00/M00 A3001 RMK A01 T10011003  RH  099%=      5-min Rain = 0
KJU1 191315Z 00000KT M00/M00 A3001 RMK A01 T10011002  RH  099%=      5-min Rain = 0
KJU1 191316Z 00000KT M00/M00 A3001 RMK A01 T10011003  RH  099%=      5-min Rain = 0
KJU1 191317Z 00000KT 00/00 A3001 RMK A01 T00-000-2  RH  099%=      5-min Rain = 0
KJU1 191318Z 00000KT 00/00 A3001 RMK A01 T00-000-2  RH  099%=      5-min Rain = 0
KJU1 191319Z 00000KT 00/00 A3001 RMK A01 T00-000-2  RH  099%=      5-min Rain = 0
KJU1 191320Z 00000KT 00/00 A3001 RMK A01 T00-000-2  RH  099%=      5-min Rain = 0
KJU1 191321Z 00000KT 00/00 A3001 RMK A01 T00-000-2  RH  099%=      5-min Rain = 0
KJU1 191322Z 00000KT 00/00 A3001 RMK A01 T00-000-2  RH  099%=      5-min Rain = 0
KJU1 191323Z 00000KT 00/00 A3001 RMK A01 T00020000  RH  099%=      5-min Rain = 0
KJU1 191324Z 00000KT 00/00 A3001 RMK A01 T00030002  RH  099%=      5-min Rain = 0
KJU1 191325Z 00000KT 00/00 A3001 RMK A01 T00040003  RH  099%=      5-min Rain = 0
KJU1 191326Z 00000KT 00/00 A3001 RMK A01 T00040003  RH  099%=      5-min Rain = 0
KJU1 191327Z 23001KT 01/01 A3001 RMK A01 T00050005  RH  099%=      5-min Rain = 0
KJU1 191328Z 23001KT 01/01 A3001 RMK A01 T00070006  RH  100%=      5-min Rain = 0
KJU1 191329Z 23001KT 01/01 A3002 RMK A01 T00080008  RH  100%=      5-min Rain = 0
KJU1 191330Z 23002KT 01/01 A3002 RMK A01 T00090009  RH  100%=      5-min Rain = 0
KJU1 191331Z 23001KT 01/01 A3002 RMK A01 T00100010  RH  100%=      5-min Rain = 0
KJU1 191332Z 22002KT 01/01 A3002 RMK A01 T00110010  RH  100%=      5-min Rain = 0
KJU1 191333Z 21002KT 01/01 A3002 RMK A01 T00120012  RH  100%=      5-min Rain = 0
KJU1 191334Z 20002KT 01/01 A3002 RMK A01 T00130012  RH  100%=      5-min Rain = 0
KJU1 191335Z 20002KT 01/01 A3002 RMK A01 T00130012  RH  100%=      5-min Rain = 0
KJU1 191336Z 20002KT 01/01 A3002 RMK A01 T00110010  RH  099%=      5-min Rain = 0
KJU1 191337Z 19001KT 01/01 A3002 RMK A01 T00090008  RH  099%=      5-min Rain = 0
KJU1 191338Z 19001KT 01/01 A3002 RMK A01 T00080007  RH  099%=      5-min Rain = 0
KJU1 191339Z 17002KT 01/01 A3002 RMK A01 T00080007  RH  099%=      5-min Rain = 0
KJU1 191340Z 17002KT 01/01 A3002 RMK A01 T00090008  RH  099%=      5-min Rain = 0
KJU1 191341Z 18002KT 01/01 A3002 RMK A01 T00100009  RH  099%=      5-min Rain = 0
KJU1 191342Z 18002KT 01/01 A3002 RMK A01 T00120011  RH  100%=      5-min Rain = 0
KJU1 191343Z 18002KT 01/01 A3002 RMK A01 T00130012  RH  100%=      5-min Rain = 0
KJU1 191344Z 18002KT 01/01 A3002 RMK A01 T00140014  RH  100%=      5-min Rain = 0
KJU1 191345Z 19002KT 02/02 A3002 RMK A01 T00150015  RH  100%=      5-min Rain = 0
KJU1 191346Z 20002KT 02/02 A3002 RMK A01 T00170017  RH  100%=      5-min Rain = 0
KJU1 191347Z 20002KT 02/02 A3002 RMK A01 T00210020  RH  100%=      5-min Rain = 0
KJU1 191348Z 20001KT 02/02 A3002 RMK A01 T00230022  RH  100%=      5-min Rain = 0
KJU1 191349Z 19001KT 02/02 A3002 RMK A01 T00240024  RH  100%=      5-min Rain = 0
KJU1 191350Z 19002KT 03/03 A3002 RMK A01 T00250025  RH  100%=      5-min Rain = 0
KJU1 191351Z 19001KT 03/03 A3002 RMK A01 T00260026  RH  100%=      5-min Rain = 0
KJU1 191352Z 18001KT 03/03 A3002 RMK A01 T00270027  RH  100%=      5-min Rain = 0
KJU1 191353Z 19001KT 03/03 A3002 RMK A01 T00270027  RH  100%=      5-min Rain = 0
KJU1 191354Z 18001KT 03/03 A3002 RMK A01 T00280027  RH  100%=      5-min Rain = 0
KJU1 191355Z 20002KT 03/03 A3002 RMK A01 T00280028  RH  100%=      5-min Rain = 0
KJU1 191356Z 21001KT 03/03 A3002 RMK A01 T00280028  RH  100%=      5-min Rain = 0
KJU1 191357Z 20002KT 03/03 A3002 RMK A01 T00290029  RH  100%=      5-min Rain = 0
KJU1 191358Z 21001KT 03/03 A3002 RMK A01 T00290029  RH  100%=      5-min Rain = 0
KJU1 191359Z 21001KT 03/03 A3002 RMK A01 T00300030  RH  100%=      5-min Rain = 0
KJU1 191400Z 21001KT 03/03 A3002 RMK A01 T00310030  RH  100%=      5-min Rain = 0
KJU1 191401Z 20000KT 03/03 A3002 RMK A01 T00310031  RH  100%=      5-min Rain = 0
KJU1 191402Z 00000KT 03/03 A3002 RMK A01 T00310031  RH  100%=      5-min Rain = 0
KJU1 191403Z 00000KT 03/03 A3002 RMK A01 T00320032  RH  100%=      5-min Rain = 0
KJU1 191404Z 00000KT 03/03 A3002 RMK A01 T00320032  RH  100%=      5-min Rain = 0
KJU1 191405Z 00000KT 03/03 A3002 RMK A01 T00330033  RH  100%=      5-min Rain = 0
KJU1 191406Z 00000KT 03/03 A3002 RMK A01 T00340034  RH  100%=      5-min Rain = 0
KJU1 191407Z 00000KT 04/04 A3002 RMK A01 T00350035  RH  100%=      5-min Rain = 0
KJU1 191408Z 00000KT 04/04 A3002 RMK A01 T00350035  RH  100%=      5-min Rain = 0
KJU1 191409Z 00000KT 04/04 A3002 RMK A01 T00360036  RH  100%=      5-min Rain = 0
KJU1 191410Z 00000KT 04/04 A3002 RMK A01 T00360036  RH  100%=      5-min Rain = 0
KJU1 191411Z 00000KT 04/04 A3002 RMK A01 T00370036  RH  100%=      5-min Rain = 0
KJU1 191412Z 00000KT 04/04 A3002 RMK A01 T00370037  RH  100%=      5-min Rain = 0
KJU1 191413Z 00000KT 04/04 A3002 RMK A01 T00380038  RH  100%=      5-min Rain = 0
KJU1 191414Z 20000KT 04/04 A3002 RMK A01 T00390039  RH  100%=      5-min Rain = 0
KJU1 191415Z 23000KT 04/04 A3003 RMK A01 T00410040  RH  100%=      5-min Rain = 0
KJU1 191416Z 22000KT 04/04 A3003 RMK A01 T00410041  RH  100%=      5-min Rain = 0
KJU1 191417Z 21001KT 04/04 A3003 RMK A01 T00420041  RH  100%=      5-min Rain = 0
KJU1 191418Z 23000KT 04/04 A3003 RMK A01 T00420041  RH  100%=      5-min Rain = 0
KJU1 191419Z 23000KT 04/04 A3003 RMK A01 T00420041  RH  100%=      5-min Rain = 0
KJU1 191420Z 25000KT 04/04 A3003 RMK A01 T00430042  RH  100%=      5-min Rain = 0
KJU1 191421Z 24001KT 04/04 A3003 RMK A01 T00440043  RH  100%=      5-min Rain = 0
KJU1 191422Z 23001KT 04/04 A3003 RMK A01 T00430042  RH  099%=      5-min Rain = 0
KJU1 191423Z 22001KT 04/04 A3003 RMK A01 T00430042  RH  099%=      5-min Rain = 0
KJU1 191424Z 23001KT 04/04 A3003 RMK A01 T00430041  RH  099%=      5-min Rain = 0
KJU1 191425Z 24001KT 04/04 A3003 RMK A01 T00420041  RH  099%=      5-min Rain = 0
KJU1 191426Z 23001KT 04/04 A3003 RMK A01 T00420041  RH  099%=      5-min Rain = 0
KJU1 191427Z 21000KT 04/04 A3003 RMK A01 T00430041  RH  099%=      5-min Rain = 0
KJU1 191428Z 24001KT 04/04 A3003 RMK A01 T00430042  RH  099%=      5-min Rain = 0
KJU1 191429Z 23001KT 04/04 A3003 RMK A01 T00440043  RH  099%=      5-min Rain = 0
KJU1 191430Z 21001KT 04/04 A3003 RMK A01 T00440043  RH  099%=      5-min Rain = 0
KJU1 191431Z 21001KT 04/04 A3003 RMK A01 T00440043  RH  099%=      5-min Rain = 0
KJU1 191432Z 19001KT 05/04 A3003 RMK A01 T00450043  RH  099%=      5-min Rain = 0
KJU1 191433Z 20001KT 05/04 A3003 RMK A01 T00450043  RH  099%=      5-min Rain = 0
KJU1 191434Z 20000KT 05/04 A3003 RMK A01 T00450044  RH  099%=      5-min Rain = 0
KJU1 191435Z 00000KT 05/04 A3003 RMK A01 T00460044  RH  099%=      5-min Rain = 0
KJU1 191436Z 00000KT 05/05 A3003 RMK A01 T00470045  RH  099%=      5-min Rain = 0
KJU1 191437Z 00000KT 05/04 A3003 RMK A01 T00470044  RH  098%=      5-min Rain = 0
KJU1 191438Z 00000KT 05/05 A3003 RMK A01 T00470045  RH  098%=      5-min Rain = 0
KJU1 191439Z 00000KT 05/05 A3003 RMK A01 T00480046  RH  098%=      5-min Rain = 0
KJU1 191440Z 00000KT 05/05 A3003 RMK A01 T00490047  RH  098%=      5-min Rain = 0
KJU1 191441Z 00000KT 05/05 A3003 RMK A01 T00500048  RH  098%=      5-min Rain = 0
KJU1 191442Z 00000KT 05/05 A3003 RMK A01 T00510048  RH  098%=      5-min Rain = 0
KJU1 191443Z 00000KT 05/05 A3003 RMK A01 T00520049  RH  098%=      5-min Rain = 0
KJU1 191444Z 00000KT 05/05 A3003 RMK A01 T00520049  RH  098%=      5-min Rain = 0
KJU1 191445Z 00000KT 05/05 A3003 RMK A01 T00520049  RH  098%=      5-min Rain = 0
KJU1 191446Z 00000KT 05/05 A3003 RMK A01 T00530050  RH  098%=      5-min Rain = 0
KJU1 191447Z 00000KT 05/05 A3003 RMK A01 T00540051  RH  098%=      5-min Rain = 0
KJU1 191448Z 00000KT 06/05 A3003 RMK A01 T00550051  RH  097%=      5-min Rain = 0
KJU1 191449Z 00000KT 06/05 A3003 RMK A01 T00560052  RH  097%=      5-min Rain = 0
KJU1 191450Z 00000KT 06/05 A3003 RMK A01 T00560052  RH  097%=      5-min Rain = 0
KJU1 191451Z 00000KT 06/05 A3003 RMK A01 T00570053  RH  097%=      5-min Rain = 0
KJU1 191452Z 00000KT 06/05 A3003 RMK A01 T00580053  RH  097%=      5-min Rain = 0
KJU1 191453Z 04000KT 06/05 A3003 RMK A01 T00580052  RH  096%=      5-min Rain = 0
KJU1 191454Z 00000KT 06/05 A3003 RMK A01 T00580051  RH  095%=      5-min Rain = 0
KJU1 191455Z 00000KT 06/05 A3003 RMK A01 T00590052  RH  095%=      5-min Rain = 0
KJU1 191456Z 00000KT 06/05 A3003 RMK A01 T00600052  RH  095%=      5-min Rain = 0
KJU1 191457Z 04001KT 06/05 A3003 RMK A01 T00610052  RH  094%=      5-min Rain = 0
KJU1 191458Z 00000KT 06/05 A3003 RMK A01 T00620053  RH  094%=      5-min Rain = 0
KJU1 191459Z 00000KT 06/05 A3003 RMK A01 T00630053  RH  093%=      5-min Rain = 0
KJU1 191500Z 00000KT 07/05 A3003 RMK A01 T00650054  RH  093%=      5-min Rain = 0
KJU1 191501Z 07000KT 07/05 A3003 RMK A01 T00660054  RH  092%=      5-min Rain = 0
KJU1 191502Z 00000KT 07/06 A3003 RMK A01 T00680055  RH  092%=      5-min Rain = 0
KJU1 191503Z 06001KT 07/06 A3003 RMK A01 T00700056  RH  091%=      5-min Rain = 0
KJU1 191504Z 06001KT 07/06 A3003 RMK A01 T00710057  RH  091%=      5-min Rain = 0
KJU1 191505Z 06000KT 07/05 A3003 RMK A01 T00710054  RH  089%=      5-min Rain = 0
KJU1 191506Z 03000KT 07/05 A3003 RMK A01 T00710053  RH  089%=      5-min Rain = 0
KJU1 191507Z 04000KT 07/05 A3003 RMK A01 T00710053  RH  088%=      5-min Rain = 0
KJU1 191508Z 00000KT 07/05 A3003 RMK A01 T00720054  RH  088%=      5-min Rain = 0
KJU1 191509Z 31000KT 07/06 A3003 RMK A01 T00730055  RH  088%=      5-min Rain = 0
KJU1 191510Z 32001KT 08/06 A3003 RMK A01 T00750056  RH  088%=      5-min Rain = 0
KJU1 191511Z 30001KT 08/06 A3003 RMK A01 T00750055  RH  087%=      5-min Rain = 0
KJU1 191512Z 29000KT 08/06 A3003 RMK A01 T00770056  RH  087%=      5-min Rain = 0
KJU1 191513Z 00000KT 08/06 A3003 RMK A01 T00780056  RH  086%=      5-min Rain = 0
KJU1 191514Z 33000KT 08/06 A3003 RMK A01 T00800057  RH  085%=      5-min Rain = 0
KJU1 191515Z 30001KT 08/06 A3003 RMK A01 T00830058  RH  084%=      5-min Rain = 0
KJU1 191516Z 00000KT 08/06 A3003 RMK A01 T00840058  RH  084%=      5-min Rain = 0
KJU1 191517Z 00000KT 09/06 A3003 RMK A01 T00850057  RH  083%=      5-min Rain = 0
KJU1 191518Z 00000KT 09/06 A3003 RMK A01 T00860059  RH  083%=      5-min Rain = 0
KJU1 191519Z 12001KT 09/06 A3003 RMK A01 T00890060  RH  082%=      5-min Rain = 0
KJU1 191520Z 12000KT 09/06 A3003 RMK A01 T00900060  RH  082%=      5-min Rain = 0
KJU1 191521Z 11000KT 09/06 A3003 RMK A01 T00910062  RH  082%=      5-min Rain = 0
KJU1 191522Z 00000KT 09/06 A3003 RMK A01 T00910061  RH  081%=      5-min Rain = 0
KJU1 191523Z 00000KT 09/06 A3003 RMK A01 T00910060  RH  081%=      5-min Rain = 0
KJU1 191524Z 00000KT 09/06 A3003 RMK A01 T00920061  RH  081%=      5-min Rain = 0
KJU1 191525Z 22000KT 09/06 A3003 RMK A01 T00930060  RH  080%=      5-min Rain = 0
KJU1 191526Z 22001KT 09/06 A3003 RMK A01 T00930060  RH  079%=      5-min Rain = 0
KJU1 191527Z 20000KT 09/06 A3003 RMK A01 T00940060  RH  079%=      5-min Rain = 0
KJU1 191528Z 20000KT 10/06 A3003 RMK A01 T00950061  RH  079%=      5-min Rain = 0
KJU1 191529Z 18000KT 10/07 A3003 RMK A01 T00970065  RH  080%=      5-min Rain = 0
KJU1 191530Z 10000KT 10/07 A3003 RMK A01 T01000067  RH  080%=      5-min Rain = 0
KJU1 191531Z 10001KT 10/07 A3003 RMK A01 T01010067  RH  079%=      5-min Rain = 0
KJU1 191532Z 13000KT 10/07 A3003 RMK A01 T01020068  RH  079%=      5-min Rain = 0
KJU1 191533Z 00000KT 10/07 A3003 RMK A01 T01030068  RH  079%=      5-min Rain = 0
KJU1 191534Z 14000KT 10/07 A3003 RMK A01 T01040067  RH  078%=      5-min Rain = 0
KJU1 191535Z 00000KT 11/07 A3003 RMK A01 T01060066  RH  076%=      5-min Rain = 0
KJU1 191536Z 00000KT 11/07 A3003 RMK A01 T01070066  RH  076%=      5-min Rain = 0
KJU1 191537Z 11000KT 11/07 A3003 RMK A01 T01090066  RH  075%=      5-min Rain = 0
KJU1 191538Z 00000KT 11/07 A3003 RMK A01 T01100066  RH  074%=      5-min Rain = 0
KJU1 191539Z 18000KT 11/07 A3003 RMK A01 T01110069  RH  075%=      5-min Rain = 0
KJU1 191540Z 01000KT 11/07 A3003 RMK A01 T01120070  RH  075%=      5-min Rain = 0
KJU1 191541Z 01001KT 11/07 A3003 RMK A01 T01110067  RH  075%=      5-min Rain = 0
KJU1 191542Z 04001KT 11/07 A3003 RMK A01 T01090066  RH  075%=      5-min Rain = 0
KJU1 191543Z 03000KT 11/07 A3003 RMK A01 T01080066  RH  076%=      5-min Rain = 0
KJU1 191544Z 00000KT 11/07 A3003 RMK A01 T01080068  RH  076%=      5-min Rain = 0
KJU1 191545Z 08000KT 11/07 A3004 RMK A01 T01090070  RH  077%=      5-min Rain = 0
KJU1 191546Z 00000KT 11/07 A3004 RMK A01 T01110072  RH  077%=      5-min Rain = 0
KJU1 191547Z 00000KT 11/07 A3004 RMK A01 T01130073  RH  076%=      5-min Rain = 0
KJU1 191548Z 14000KT 12/07 A3004 RMK A01 T01150073  RH  075%=      5-min Rain = 0
KJU1 191549Z 00000KT 12/07 A3004 RMK A01 T01160073  RH  075%=      5-min Rain = 0
KJU1 191550Z 17000KT 12/07 A3004 RMK A01 T01170073  RH  074%=      5-min Rain = 0
KJU1 191551Z 00000KT 12/07 A3004 RMK A01 T01190074  RH  074%=      5-min Rain = 0
KJU1 191552Z 00000KT 12/08 A3004 RMK A01 T01200076  RH  074%=      5-min Rain = 0
KJU1 191553Z 00000KT 12/08 A3004 RMK A01 T01210076  RH  074%=      5-min Rain = 0
KJU1 191554Z 00000KT 12/08 A3004 RMK A01 T01210075  RH  073%=      5-min Rain = 0
KJU1 191555Z 30000KT 12/07 A3004 RMK A01 T01210074  RH  073%=      5-min Rain = 0
KJU1 191556Z 00000KT 12/07 A3004 RMK A01 T01190071  RH  072%=      5-min Rain = 0
KJU1 191557Z 00000KT 12/07 A3004 RMK A01 T01190071  RH  072%=      5-min Rain = 0
KJU1 191558Z 00000KT 12/07 A3004 RMK A01 T01190072  RH  073%=      5-min Rain = 0
KJU1 191559Z 00000KT 12/07 A3004 RMK A01 T01200072  RH  073%=      5-min Rain = 0
KJU1 191600Z 08000KT 12/07 A3004 RMK A01 T01200073  RH  073%=      5-min Rain = 0
KJU1 191601Z 11000KT 12/08 A3004 RMK A01 T01220075  RH  073%=      5-min Rain = 0
KJU1 191602Z 10000KT 12/08 A3004 RMK A01 T01230076  RH  073%=      5-min Rain = 0
KJU1 191603Z 17000KT 13/08 A3004 RMK A01 T01260078  RH  073%=      5-min Rain = 0
KJU1 191604Z 00000KT 13/08 A3004 RMK A01 T01280078  RH  072%=      5-min Rain = 0
KJU1 191605Z 00000KT 13/08 A3004 RMK A01 T01290078  RH  071%=      5-min Rain = 0
KJU1 191606Z 14000KT 13/08 A3004 RMK A01 T01310078  RH  070%=      5-min Rain = 0
KJU1 191607Z 00000KT 13/08 A3004 RMK A01 T01310077  RH  070%=      5-min Rain = 0
KJU1 191608Z 12001KT 13/08 A3004 RMK A01 T01330079  RH  070%=      5-min Rain = 0
KJU1 191609Z 13001KT 14/08 A3004 RMK A01 T01350081  RH  070%=      5-min Rain = 0
KJU1 191610Z 13001KT 14/08 A3004 RMK A01 T01370083  RH  070%=      5-min Rain = 0
KJU1 191611Z 14001KT 14/08 A3004 RMK A01 T01390083  RH  069%=      5-min Rain = 0
KJU1 191612Z 15001KT 14/08 A3004 RMK A01 T01410082  RH  068%=      5-min Rain = 0
KJU1 191613Z 17002KT 14/08 A3004 RMK A01 T01430083  RH  067%=      5-min Rain = 0
KJU1 191614Z 19001KT 14/08 A3004 RMK A01 T01430082  RH  067%=      5-min Rain = 0
KJU1 191615Z 16000KT 14/08 A3004 RMK A01 T01430083  RH  067%=      5-min Rain = 0
KJU1 191616Z 14000KT 14/08 A3004 RMK A01 T01440082  RH  066%=      5-min Rain = 0
KJU1 191617Z 09000KT 15/08 A3004 RMK A01 T01450084  RH  067%=      5-min Rain = 0
KJU1 191618Z 11000KT 15/09 A3004 RMK A01 T01470085  RH  067%=      5-min Rain = 0
KJU1 191619Z 11000KT 15/09 A3004 RMK A01 T01480085  RH  066%=      5-min Rain = 0
KJU1 191620Z 12000KT 15/09 A3004 RMK A01 T01480085  RH  066%=      5-min Rain = 0
KJU1 191621Z 15001KT 15/09 A3003 RMK A01 T01490086  RH  066%=      5-min Rain = 0
KJU1 191622Z 19001KT 15/09 A3003 RMK A01 T01490087  RH  066%=      5-min Rain = 0
KJU1 191623Z 15001KT 15/09 A3003 RMK A01 T01500088  RH  066%=      5-min Rain = 0
KJU1 191624Z 16001KT 15/09 A3003 RMK A01 T01520089  RH  066%=      5-min Rain = 0
KJU1 191625Z 15001KT 15/09 A3003 RMK A01 T01530087  RH  065%=      5-min Rain = 0
KJU1 191626Z 19001KT 15/09 A3003 RMK A01 T01540087  RH  064%=      5-min Rain = 0
KJU1 191627Z 19002KT 15/09 A3003 RMK A01 T01540090  RH  066%=      5-min Rain = 0
KJU1 191628Z 19002KT 15/09 A3003 RMK A01 T01540089  RH  065%=      5-min Rain = 0
KJU1 191629Z 19002KT 15/09 A3003 RMK A01 T01530088  RH  065%=      5-min Rain = 0
KJU1 191630Z 19001KT 15/09 A3003 RMK A01 T01530089  RH  065%=      5-min Rain = 0
KJU1 191631Z 00000KT 15/09 A3003 RMK A01 T01530089  RH  065%=      5-min Rain = 0
KJU1 191632Z 13000KT 16/09 A3003 RMK A01 T01550090  RH  065%=      5-min Rain = 0
KJU1 191633Z 15000KT 16/09 A3003 RMK A01 T01570091  RH  065%=      5-min Rain = 0
KJU1 191634Z 00000KT 16/09 A3003 RMK A01 T01590092  RH  065%=      5-min Rain = 0
KJU1 191635Z 07001KT 16/09 A3003 RMK A01 T01600093  RH  064%=      5-min Rain = 0
KJU1 191636Z 07001KT 16/09 A3003 RMK A01 T01620093  RH  064%=      5-min Rain = 0
KJU1 191637Z 04000KT 16/09 A3003 RMK A01 T01620092  RH  063%=      5-min Rain = 0
KJU1 191638Z 04001KT 16/09 A3003 RMK A01 T01610092  RH  064%=      5-min Rain = 0
KJU1 191639Z 05001KT 16/09 A3003 RMK A01 T01610094  RH  064%=      5-min Rain = 0
KJU1 191640Z 03001KT 16/10 A3003 RMK A01 T01620095  RH  064%=      5-min Rain = 0
KJU1 191641Z 03000KT 16/10 A3003 RMK A01 T01640096  RH  064%=      5-min Rain = 0
KJU1 191642Z 01000KT 17/10 A3003 RMK A01 T01650097  RH  064%=      5-min Rain = 0
KJU1 191643Z 31000KT 17/10 A3003 RMK A01 T01660097  RH  064%=      5-min Rain = 0
KJU1 191644Z 32000KT 17/10 A3003 RMK A01 T01670099  RH  064%=      5-min Rain = 0
KJU1 191645Z 16001KT 17/10 A3003 RMK A01 T01690100  RH  064%=      5-min Rain = 0
KJU1 191646Z 16002KT 17/10 A3003 RMK A01 T01710099  RH  063%=      5-min Rain = 0
KJU1 191647Z 18002KT 17/10 A3003 RMK A01 T01710097  RH  061%=      5-min Rain = 0
KJU1 191648Z 17001KT 17/10 A3003 RMK A01 T01710096  RH  061%=      5-min Rain = 0
KJU1 191649Z 17000KT 17/10 A3003 RMK A01 T01720096  RH  061%=      5-min Rain = 0
KJU1 191650Z 00000KT 17/10 A3003 RMK A01 T01730096  RH  061%=      5-min Rain = 0
KJU1 191651Z 16002KT 17/10 A3003 RMK A01 T01730097  RH  061%=      5-min Rain = 0
KJU1 191652Z 18002KT 17/10 A3003 RMK A01 T01740098  RH  061%=      5-min Rain = 0
KJU1 191653Z 17001KT 18/10 A3003 RMK A01 T01750097  RH  060%=      5-min Rain = 0
KJU1 191654Z 18000KT 18/10 A3002 RMK A01 T01750097  RH  060%=      5-min Rain = 0
KJU1 191655Z 19000KT 18/10 A3002 RMK A01 T01760099  RH  060%=      5-min Rain = 0
KJU1 191656Z 18000KT 18/10 A3002 RMK A01 T01780099  RH  060%=      5-min Rain = 0
KJU1 191657Z 18001KT 18/10 A3002 RMK A01 T01800100  RH  059%=      5-min Rain = 0
KJU1 191658Z 16001KT 18/10 A3002 RMK A01 T01820101  RH  059%=      5-min Rain = 0
KJU1 191659Z 19002KT 18/10 A3002 RMK A01 T01840101  RH  058%=      5-min Rain = 0
KJU1 191700Z 21001KT 19/10 A3002 RMK A01 T01850101  RH  058%=      5-min Rain = 0
KJU1 191701Z 20001KT 19/10 A3002 RMK A01 T01850101  RH  058%=      5-min Rain = 0
KJU1 191702Z 17000KT 19/10 A3002 RMK A01 T01850101  RH  058%=      5-min Rain = 0
KJU1 191703Z 14001KT 19/10 A3002 RMK A01 T01860101  RH  058%=      5-min Rain = 0
KJU1 191704Z 17002KT 19/10 A3002 RMK A01 T01880103  RH  058%=      5-min Rain = 0
KJU1 191705Z 17001KT 19/10 A3002 RMK A01 T01880102  RH  057%=      5-min Rain = 0
KJU1 191706Z 16001KT 19/10 A3002 RMK A01 T01890101  RH  057%=      5-min Rain = 0
KJU1 191707Z 00000KT 19/10 A3002 RMK A01 T01890102  RH  057%=      5-min Rain = 0
KJU1 191708Z 10000KT 19/10 A3002 RMK A01 T01900104  RH  057%=      5-min Rain = 0
KJU1 191709Z 07001KT 19/11 A3002 RMK A01 T01920105  RH  057%=      5-min Rain = 0
KJU1 191710Z 08001KT 19/10 A3002 RMK A01 T01920103  RH  056%=      5-min Rain = 0
KJU1 191711Z 05001KT 19/10 A3002 RMK A01 T01920103  RH  056%=      5-min Rain = 0
KJU1 191712Z 09001KT 19/10 A3001 RMK A01 T01920104  RH  057%=      5-min Rain = 0
KJU1 191713Z 12001KT 19/11 A3001 RMK A01 T01920105  RH  057%=      5-min Rain = 0
KJU1 191714Z 14001KT 19/11 A3001 RMK A01 T01930105  RH  057%=      5-min Rain = 0
KJU1 191715Z 20000KT 20/11 A3001 RMK A01 T01950107  RH  057%=      5-min Rain = 0
KJU1 191716Z 00000KT 20/11 A3001 RMK A01 T01960106  RH  056%=      5-min Rain = 0
KJU1 191717Z 04000KT 20/11 A3001 RMK A01 T01980107  RH  056%=      5-min Rain = 0
KJU1 191718Z 03001KT 20/11 A3001 RMK A01 T01990108  RH  056%=      5-min Rain = 0
KJU1 191719Z 02002KT 20/11 A3001 RMK A01 T02000107  RH  055%=      5-min Rain = 0
KJU1 191720Z 02002KT 20/11 A3001 RMK A01 T02000108  RH  055%=      5-min Rain = 0
KJU1 191721Z 03002KT 20/11 A3001 RMK A01 T02010109  RH  055%=      5-min Rain = 0
KJU1 191722Z 03002KT 20/11 A3001 RMK A01 T02020109  RH  055%=      5-min Rain = 0
KJU1 191723Z 02002KT 20/11 A3001 RMK A01 T02020108  RH  055%=      5-min Rain = 0
KJU1 191724Z 05001KT 20/11 A30 RMK A01 T02030111  RH  055%=      5-min Rain = 0
KJU1 191725Z 04001KT 20/11 A30 RMK A01 T02040108  RH  054%=      5-min Rain = 0
KJU1 191726Z 00000KT 20/11 A30 RMK A01 T02040107  RH  054%=      5-min Rain = 0
KJU1 191727Z 34001KT 21/11 A30 RMK A01 T02050108  RH  054%=      5-min Rain = 0
KJU1 191728Z 33002KT 21/11 A30 RMK A01 T02060109  RH  054%=      5-min Rain = 0
KJU1 191729Z 33002KT 21/11 A30 RMK A01 T02060109  RH  054%=      5-min Rain = 0
KJU1 191730Z 33001KT 21/11 A30 RMK A01 T02060111  RH  054%=      5-min Rain = 0
KJU1 191731Z 33001KT 21/11 A30 RMK A01 T02070110  RH  054%=      5-min Rain = 0
KJU1 191732Z 34001KT 21/11 A30 RMK A01 T02080111  RH  054%=      5-min Rain = 0
KJU1 191733Z 36001KT 21/11 A30 RMK A01 T02080111  RH  054%=      5-min Rain = 0
KJU1 191734Z 35001KT 21/11 A30 RMK A01 T02090111  RH  053%=      5-min Rain = 0
KJU1 191735Z 30001KT 21/11 A30 RMK A01 T02100110  RH  053%=      5-min Rain = 0
KJU1 191736Z 03001KT 21/11 A30 RMK A01 T02110109  RH  052%=      5-min Rain = 0
KJU1 191737Z 06001KT 21/11 A30 RMK A01 T02120110  RH  052%=      5-min Rain = 0
KJU1 191738Z 01001KT 21/11 A30 RMK A01 T02130109  RH  052%=      5-min Rain = 0
KJU1 191739Z 01002KT 21/11 A30 RMK A01 T02140110  RH  052%=      5-min Rain = 0
KJU1 191740Z 02002KT 22/11 A30 RMK A01 T02150111  RH  052%=      5-min Rain = 0
KJU1 191741Z 03002KT 22/11 A30 RMK A01 T02160112  RH  051%=      5-min Rain = 0
KJU1 191742Z 02002KT 22/11 A30 RMK A01 T02180111  RH  050%=      5-min Rain = 0
KJU1 191743Z 01002KT 22/11 A30 RMK A01 T02190110  RH  050%=      5-min Rain = 0
KJU1 191744Z 35001KT 22/11 A30 RMK A01 T02200110  RH  050%=      5-min Rain = 0
KJU1 191745Z 21000KT 22/11 A30 RMK A01 T02220112  RH  050%=      5-min Rain = 0
KJU1 191746Z 19002KT 23/11 A2999 RMK A01 T02250110  RH  048%=      5-min Rain = 0
KJU1 191747Z 23001KT 23/11 A2999 RMK A01 T02280108  RH  047%=      5-min Rain = 0
KJU1 191748Z 22004KT 23/11 A2999 RMK A01 T02320112  RH  047%=      5-min Rain = 0
KJU1 191749Z 22002KT 23/11 A2999 RMK A01 T02340112  RH  046%=      5-min Rain = 0
KJU1 191750Z 22005KT 23/11 A2999 RMK A01 T02340111  RH  046%=      5-min Rain = 0
KJU1 191751Z 19006KT 24/11 A2999 RMK A01 T02370105  RH  043%=      5-min Rain = 0
KJU1 191752Z 16005KT 24/10 A2999 RMK A01 T02390104  RH  043%=      5-min Rain = 0
KJU1 191753Z 18007KT 24/10 A2999 RMK A01 T02390100  RH  041%=      5-min Rain = 0
KJU1 191754Z 20007KT 24/10 A2999 RMK A01 T02400099  RH  041%=      5-min Rain = 0
KJU1 191755Z 18008KT 24/10 A2999 RMK A01 T02410097  RH  040%=      5-min Rain = 0
KJU1 191756Z 18005KT 24/10 A2999 RMK A01 T02410095  RH  040%=      5-min Rain = 0
KJU1 191757Z 20005KT 24/10 A2999 RMK A01 T02400096  RH  040%=      5-min Rain = 0
KJU1 191758Z 22005KT 24/10 A2999 RMK A01 T02420100  RH  041%=      5-min Rain = 0
KJU1 191759Z 20006KT 24/10 A2999 RMK A01 T02440097  RH  039%=      5-min Rain = 0
KJU1 191800Z 17006KT 24/10 A2999 RMK A01 T02440098  RH  040%=      5-min Rain = 0
KJU1 191801Z 18008KT 25/10 A2998 RMK A01 T02450098  RH  039%=      5-min Rain = 0
KJU1 191802Z 18009KT 25/10 A2998 RMK A01 T02450097  RH  039%=      5-min Rain = 0
KJU1 191803Z 19007KT 25/10 A2998 RMK A01 T02450097  RH  039%=      5-min Rain = 0
KJU1 191804Z 18007KT 25/10 A2998 RMK A01 T02450097  RH  039%=      5-min Rain = 0
KJU1 191805Z 20007KT 25/10 A2998 RMK A01 T02450098  RH  039%=      5-min Rain = 0
KJU1 191806Z 18007KT 25/10 A2998 RMK A01 T02460096  RH  039%=      5-min Rain = 0
KJU1 191807Z 18004KT 24/09 A2998 RMK A01 T02430093  RH  039%=      5-min Rain = 0
KJU1 191808Z 18005G12KT 24/10 A2998 RMK A01 T02410095  RH  039%=      5-min Rain = 0
KJU1 191809Z 17007G12KT 24/10 A2998 RMK A01 T02430096  RH  039%=      5-min Rain = 0
KJU1 191810Z 18006KT 24/10 A2998 RMK A01 T02430095  RH  039%=      5-min Rain = 0
KJU1 191811Z 20006KT 24/10 A2998 RMK A01 T02440097  RH  039%=      5-min Rain = 0
KJU1 191812Z 21005KT 25/10 A2998 RMK A01 T02460096  RH  039%=      5-min Rain = 0
KJU1 191813Z 22006KT 25/09 A2998 RMK A01 T02470094  RH  038%=      5-min Rain = 0
KJU1 191814Z 21009KT 25/09 A2998 RMK A01 T02480093  RH  037%=      5-min Rain = 0
KJU1 191815Z 21011KT 25/09 A2997 RMK A01 T02480093  RH  037%=      5-min Rain = 0
KJU1 191816Z 19009KT 25/09 A2997 RMK A01 T02480094  RH  038%=      5-min Rain = 0
KJU1 191817Z 19010KT 25/09 A2997 RMK A01 T02480093  RH  037%=      5-min Rain = 0
KJU1 191818Z 18008KT 25/10 A2997 RMK A01 T02490096  RH  038%=      5-min Rain = 0
KJU1 191819Z 20010KT 25/10 A2997 RMK A01 T02500097  RH  038%=      5-min Rain = 0
KJU1 191820Z 18007KT 25/10 A2997 RMK A01 T02500097  RH  038%=      5-min Rain = 0
KJU1 191821Z 19007KT 25/10 A2997 RMK A01 T02500098  RH  038%=      5-min Rain = 0
KJU1 191822Z 21008KT 25/10 A2997 RMK A01 T02510099  RH  038%=      5-min Rain = 0
KJU1 191823Z 21006KT 25/10 A2997 RMK A01 T02510098  RH  038%=      5-min Rain = 0
KJU1 191824Z 18007KT 25/10 A2997 RMK A01 T02510100  RH  039%=      5-min Rain = 0
KJU1 191825Z 18010KT 25/10 A2997 RMK A01 T02540096  RH  037%=      5-min Rain = 0
KJU1 191826Z 18007KT 26/09 A2997 RMK A01 T02550094  RH  036%=      5-min Rain = 0
KJU1 191827Z 20009KT 26/09 A2997 RMK A01 T02570094  RH  036%=      5-min Rain = 0
KJU1 191828Z 20008G15KT 25/10 A2997 RMK A01 T02540098  RH  037%=      5-min Rain = 0
KJU1 191829Z 18010KT 25/09 A2997 RMK A01 T02530094  RH  037%=      5-min Rain = 0
KJU1 191830Z 19009KT 25/09 A2997 RMK A01 T02510093  RH  037%=      5-min Rain = 0
KJU1 191831Z 20009G14KT 25/09 A2997 RMK A01 T02500092  RH  037%=      5-min Rain = 0
KJU1 191832Z 17012KT 25/09 A2996 RMK A01 T02500093  RH  037%=      5-min Rain = 0
KJU1 191833Z 17010KT 25/09 A2996 RMK A01 T02500092  RH  037%=      5-min Rain = 0
KJU1 191834Z 16009KT 25/09 A2996 RMK A01 T02500094  RH  037%=      5-min Rain = 0
KJU1 191835Z 17007KT 25/10 A2996 RMK A01 T02510095  RH  037%=      5-min Rain = 0
KJU1 191836Z 20009KT 25/10 A2996 RMK A01 T02520095  RH  037%=      5-min Rain = 0
KJU1 191837Z 18009KT 25/09 A2996 RMK A01 T02520094  RH  037%=      5-min Rain = 0
KJU1 191838Z 19011KT 25/09 A2996 RMK A01 T02520089  RH  035%=      5-min Rain = 0
KJU1 191839Z 19009KT 25/09 A2996 RMK A01 T02520090  RH  036%=      5-min Rain = 0
KJU1 191840Z 19009KT 25/09 A2996 RMK A01 T02510092  RH  036%=      5-min Rain = 0
KJU1 191841Z 19009KT 25/09 A2996 RMK A01 T02510091  RH  036%=      5-min Rain = 0
KJU1 191842Z 18009KT 25/09 A2996 RMK A01 T02500089  RH  036%=      5-min Rain = 0
KJU1 191843Z 18009KT 25/09 A2996 RMK A01 T02510092  RH  036%=      5-min Rain = 0
KJU1 191844Z 19008KT 25/09 A2996 RMK A01 T02530090  RH  036%=      5-min Rain = 0
KJU1 191845Z 19009KT 25/09 A2996 RMK A01 T02530091  RH  036%=      5-min Rain = 0
KJU1 191846Z 20010KT 25/09 A2995 RMK A01 T02540093  RH  036%=      5-min Rain = 0
KJU1 191847Z 19010KT 25/09 A2996 RMK A01 T02540092  RH  036%=      5-min Rain = 0
KJU1 191848Z 19009KT 25/09 A2996 RMK A01 T02530088  RH  035%=      5-min Rain = 0
KJU1 191849Z 17009KT 25/09 A2995 RMK A01 T02520085  RH  035%=      5-min Rain = 0
KJU1 191850Z 17008KT 25/09 A2995 RMK A01 T02520086  RH  035%=      5-min Rain = 0
KJU1 191851Z 17010KT 25/09 A2995 RMK A01 T02540087  RH  035%=      5-min Rain = 0
KJU1 191852Z 19008KT 26/09 A2995 RMK A01 T02570089  RH  034%=      5-min Rain = 0
KJU1 191853Z 19009KT 26/09 A2995 RMK A01 T02590091  RH  035%=      5-min Rain = 0
KJU1 191854Z 20009KT 26/09 A2995 RMK A01 T02590092  RH  035%=      5-min Rain = 0
KJU1 191855Z 20006KT 26/09 A2995 RMK A01 T02580090  RH  035%=      5-min Rain = 0
KJU1 191856Z 19006KT 26/09 A2995 RMK A01 T02570089  RH  035%=      5-min Rain = 0
KJU1 191857Z 21007G12KT 25/09 A2995 RMK A01 T02540086  RH  034%=      5-min Rain = 0
KJU1 191858Z 22011KT 25/09 A2995 RMK A01 T02530091  RH  036%=      5-min Rain = 0
KJU1 191859Z 21008KT 25/09 A2995 RMK A01 T02530092  RH  036%=      5-min Rain = 0
KJU1 191900Z 19007KT 25/09 A2995 RMK A01 T02540094  RH  036%=      5-min Rain = 0
KJU1 191901Z 16009KT 26/09 A2995 RMK A01 T02570093  RH  036%=      5-min Rain = 0
KJU1 191902Z 18011KT 26/09 A2995 RMK A01 T02580092  RH  035%=      5-min Rain = 0
KJU1 191903Z 16009KT 26/09 A2995 RMK A01 T02570093  RH  035%=      5-min Rain = 0
KJU1 191904Z 18008KT 26/09 A2995 RMK A01 T02570094  RH  036%=      5-min Rain = 0
KJU1 191905Z 20007KT 26/10 A2995 RMK A01 T02590095  RH  035%=      5-min Rain = 0
KJU1 191906Z 21005KT 26/09 A2995 RMK A01 T02570094  RH  036%=      5-min Rain = 0
KJU1 191907Z 21007KT 26/10 A2995 RMK A01 T02570099  RH  037%=      5-min Rain = 0
KJU1 191908Z 19008KT 26/10 A2994 RMK A01 T02600099  RH  036%=      5-min Rain = 0
KJU1 191909Z 19009KT 26/10 A2994 RMK A01 T02610098  RH  036%=      5-min Rain = 0
KJU1 191910Z 18007KT 26/09 A2994 RMK A01 T02590094  RH  035%=      5-min Rain = 0
KJU1 191911Z 19008KT 26/10 A2994 RMK A01 T02570095  RH  036%=      5-min Rain = 0
KJU1 191912Z 18008KT 26/10 A2994 RMK A01 T02590097  RH  036%=      5-min Rain = 0
KJU1 191913Z 17011G16KT 26/10 A2994 RMK A01 T02610096  RH  035%=      5-min Rain = 0
KJU1 191914Z 18010KT 26/09 A2994 RMK A01 T02620094  RH  034%=      5-min Rain = 0
KJU1 191915Z 20006KT 26/09 A2994 RMK A01 T02610093  RH  034%=      5-min Rain = 0
KJU1 191916Z 19006KT 26/09 A2994 RMK A01 T02620094  RH  035%=      5-min Rain = 0
KJU1 191917Z 18007KT 26/10 A2994 RMK A01 T02640096  RH  035%=      5-min Rain = 0
KJU1 191918Z 18006KT 27/10 A2994 RMK A01 T02670097  RH  034%=      5-min Rain = 0
KJU1 191919Z 17010KT 27/10 A2994 RMK A01 T02670095  RH  034%=      5-min Rain = 0
KJU1 191920Z 17011KT 27/09 A2994 RMK A01 T02660092  RH  033%=      5-min Rain = 0
KJU1 191921Z 17008KT 26/09 A2994 RMK A01 T02620089  RH  033%=      5-min Rain = 0
KJU1 191922Z 18007KT 26/09 A2994 RMK A01 T02610092  RH  034%=      5-min Rain = 0
KJU1 191923Z 16009KT 26/09 A2993 RMK A01 T02630092  RH  034%=      5-min Rain = 0
KJU1 191924Z 17010KT 26/09 A2993 RMK A01 T02630091  RH  034%=      5-min Rain = 0
KJU1 191925Z 16011KT 26/09 A2993 RMK A01 T02630089  RH  033%=      5-min Rain = 0
KJU1 191926Z 17010KT 26/09 A2993 RMK A01 T02610085  RH  033%=      5-min Rain = 0
KJU1 191927Z 19009KT 26/09 A2993 RMK A01 T02610085  RH  033%=      5-min Rain = 0
KJU1 191928Z 19011KT 26/09 A2993 RMK A01 T02610085  RH  033%=      5-min Rain = 0
KJU1 191929Z 19012KT 26/08 A2993 RMK A01 T02620084  RH  032%=      5-min Rain = 0
KJU1 191930Z 16009KT 26/08 A2993 RMK A01 T02610082  RH  032%=      5-min Rain = 0
KJU1 191931Z 18011KT 26/08 A2993 RMK A01 T02600082  RH  032%=      5-min Rain = 0
KJU1 191932Z 16010KT 26/08 A2993 RMK A01 T02600082  RH  032%=      5-min Rain = 0
KJU1 191933Z 16009KT 26/08 A2993 RMK A01 T02620084  RH  032%=      5-min Rain = 0
KJU1 191934Z 16010KT 26/08 A2993 RMK A01 T02640083  RH  032%=      5-min Rain = 0
KJU1 191935Z 16008KT 26/08 A2993 RMK A01 T02640080  RH  031%=      5-min Rain = 0
KJU1 191936Z 16007KT 26/08 A2993 RMK A01 T02630082  RH  032%=      5-min Rain = 0
KJU1 191937Z 15008KT 26/08 A2993 RMK A01 T02630082  RH  032%=      5-min Rain = 0
KJU1 191938Z 18008KT 26/08 A2993 RMK A01 T02620083  RH  032%=      5-min Rain = 0
KJU1 191939Z 20008KT 26/09 A2993 RMK A01 T02620088  RH  033%=      5-min Rain = 0
KJU1 191940Z 21011KT 26/09 A2993 RMK A01 T02620087  RH  033%=      5-min Rain = 0
KJU1 191941Z 21008KT 26/09 A2993 RMK A01 T02610085  RH  033%=      5-min Rain = 0
KJU1 191942Z 21007KT 26/08 A2993 RMK A01 T02600084  RH  033%=      5-min Rain = 0
KJU1 191943Z 19007KT 26/09 A2993 RMK A01 T02610086  RH  033%=      5-min Rain = 0
KJU1 191944Z 20007KT 26/08 A2992 RMK A01 T02620084  RH  032%=      5-min Rain = 0
KJU1 191945Z 19012KT 26/09 A2992 RMK A01 T02610085  RH  033%=      5-min Rain = 0
KJU1 191946Z 17008KT 26/08 A2992 RMK A01 T02590084  RH  033%=      5-min Rain = 0
KJU1 191947Z 18007KT 26/09 A2992 RMK A01 T02590087  RH  034%=      5-min Rain = 0
KJU1 191948Z 17010KT 26/09 A2992 RMK A01 T02600088  RH  034%=      5-min Rain = 0
KJU1 191949Z 18010KT 26/09 A2992 RMK A01 T02590089  RH  034%=      5-min Rain = 0
KJU1 191950Z 19008KT 26/09 A2992 RMK A01 T02570087  RH  034%=      5-min Rain = 0
KJU1 191951Z 19008G13KT 26/09 A2992 RMK A01 T02550086  RH  034%=      5-min Rain = 0
KJU1 191952Z 19011KT 26/09 A2992 RMK A01 T02550087  RH  034%=      5-min Rain = 0
KJU1 191953Z 19009KT 26/09 A2992 RMK A01 T02550088  RH  035%=      5-min Rain = 0
KJU1 191954Z 19010KT 26/09 A2992 RMK A01 T02560088  RH  035%=      5-min Rain = 0
KJU1 191955Z 18010KT 26/09 A2992 RMK A01 T02570089  RH  035%=      5-min Rain = 0
KJU1 191956Z 18009KT 26/09 A2992 RMK A01 T02590091  RH  035%=      5-min Rain = 0
KJU1 191957Z 18007KT 26/09 A2992 RMK A01 T02610090  RH  034%=      5-min Rain = 0
KJU1 191958Z 17010KT 26/09 A2992 RMK A01 T02630090  RH  034%=      5-min Rain = 0
KJU1 191959Z 16010KT 26/09 A2992 RMK A01 T02640088  RH  033%=      5-min Rain = 0
KJU1 192000Z 16007KT 26/09 A2991 RMK A01 T02620086  RH  033%=      5-min Rain = 0
KJU1 192001Z 15008KT 26/09 A2991 RMK A01 T02600087  RH  033%=      5-min Rain = 0
KJU1 192002Z 15007KT 26/09 A2991 RMK A01 T02600086  RH  033%=      5-min Rain = 0
KJU1 192003Z 16011KT 26/09 A2991 RMK A01 T02600086  RH  033%=      5-min Rain = 0
KJU1 192004Z 17009KT 26/09 A2991 RMK A01 T02610087  RH  033%=      5-min Rain = 0
KJU1 192005Z 17010KT 26/09 A2991 RMK A01 T02620089  RH  034%=      5-min Rain = 0
KJU1 192006Z 19011KT 26/09 A2991 RMK A01 T02610090  RH  034%=      5-min Rain = 0
KJU1 192007Z 19011KT 26/09 A2991 RMK A01 T02590087  RH  034%=      5-min Rain = 0
KJU1 192008Z 19009KT 26/09 A2991 RMK A01 T02570088  RH  034%=      5-min Rain = 0
KJU1 192009Z 18008KT 26/09 A2991 RMK A01 T02570089  RH  034%=      5-min Rain = 0
KJU1 192010Z 18010KT 26/09 A2991 RMK A01 T02580088  RH  034%=      5-min Rain = 0
KJU1 192011Z 16009KT 26/08 A2991 RMK A01 T02590084  RH  033%=      5-min Rain = 0
KJU1 192012Z 16008KT 26/08 A2991 RMK A01 T02590081  RH  032%=      5-min Rain = 0
KJU1 192013Z 16009KT 26/08 A2991 RMK A01 T02580083  RH  033%=      5-min Rain = 0
KJU1 192014Z 16010KT 26/08 A2991 RMK A01 T02580084  RH  033%=      5-min Rain = 0
KJU1 192015Z 16010KT 26/09 A2991 RMK A01 T02580086  RH  034%=      5-min Rain = 0
KJU1 192016Z 17010KT 26/09 A2991 RMK A01 T02580090  RH  035%=      5-min Rain = 0
KJU1 192017Z 18009KT 26/09 A2991 RMK A01 T02580092  RH  035%=      5-min Rain = 0
KJU1 192018Z 18009KT 26/09 A2991 RMK A01 T02580093  RH  035%=      5-min Rain = 0
KJU1 192019Z 18012KT 26/08 A2991 RMK A01 T02580084  RH  033%=      5-min Rain = 0
KJU1 192020Z 17009G14KT 26/08 A2991 RMK A01 T02560079  RH  033%=      5-min Rain = 0
KJU1 192021Z 17012KT 26/08 A2991 RMK A01 T02550079  RH  033%=      5-min Rain = 0
KJU1 192022Z 16014KT 26/08 A2991 RMK A01 T02560079  RH  033%=      5-min Rain = 0
KJU1 192023Z 15012KT 26/08 A2991 RMK A01 T02570081  RH  033%=      5-min Rain = 0
KJU1 192024Z 15011KT 26/08 A2991 RMK A01 T02590081  RH  032%=      5-min Rain = 0
KJU1 192025Z 18012KT 26/08 A2991 RMK A01 T02590081  RH  032%=      5-min Rain = 0
KJU1 192026Z 18011KT 26/08 A2991 RMK A01 T02590081  RH  032%=      5-min Rain = 0
KJU1 192027Z 17008KT 26/08 A2991 RMK A01 T02580082  RH  033%=      5-min Rain = 0
KJU1 192028Z 16008KT 26/08 A2991 RMK A01 T02600084  RH  033%=      5-min Rain = 0
KJU1 192029Z 17012KT 26/08 A2991 RMK A01 T02610082  RH  032%=      5-min Rain = 0
KJU1 192030Z 15013KT 26/08 A2991 RMK A01 T02600081  RH  032%=      5-min Rain = 0
KJU1 192031Z 15012KT 26/08 A2991 RMK A01 T02590079  RH  032%=      5-min Rain = 0
KJU1 192032Z 18013KT 26/08 A2991 RMK A01 T02590080  RH  032%=      5-min Rain = 0
KJU1 192033Z 18010KT 26/08 A2991 RMK A01 T02580080  RH  032%=      5-min Rain = 0
KJU1 192034Z 18010KT 26/08 A2991 RMK A01 T02570078  RH  032%=      5-min Rain = 0
KJU1 192035Z 15012KT 26/08 A2991 RMK A01 T02570078  RH  032%=      5-min Rain = 0
KJU1 192036Z 15013KT 26/08 A2991 RMK A01 T02560077  RH  032%=      5-min Rain = 0
KJU1 192037Z 15010KT 26/08 A2991 RMK A01 T02550077  RH  032%=      5-min Rain = 0
KJU1 192038Z 16008KT 26/08 A2991 RMK A01 T02550080  RH  033%=      5-min Rain = 0
KJU1 192039Z 16011KT 26/08 A2991 RMK A01 T02560080  RH  033%=      5-min Rain = 0
KJU1 192040Z 17011KT 26/08 A2991 RMK A01 T02560081  RH  033%=      5-min Rain = 0
KJU1 192041Z 18008KT 26/08 A2991 RMK A01 T02550082  RH  033%=      5-min Rain = 0
KJU1 192042Z 17010KT 26/08 A2991 RMK A01 T02560084  RH  033%=      5-min Rain = 0
KJU1 192043Z 17010KT 26/08 A2991 RMK A01 T02570082  RH  033%=      5-min Rain = 0
KJU1 192044Z 16011KT 26/08 A2991 RMK A01 T02580082  RH  033%=      5-min Rain = 0
KJU1 192045Z 16010KT 26/08 A2991 RMK A01 T02560080  RH  033%=      5-min Rain = 0
KJU1 192046Z 17011KT 26/08 A2991 RMK A01 T02560080  RH  033%=      5-min Rain = 0
KJU1 192047Z 17009KT 26/08 A2991 RMK A01 T02550080  RH  033%=      5-min Rain = 0
KJU1 192048Z 17009KT 26/08 A2991 RMK A01 T02550080  RH  033%=      5-min Rain = 0
KJU1 192049Z 16008KT 26/08 A2991 RMK A01 T02560080  RH  033%=      5-min Rain = 0
KJU1 192050Z 17008KT 26/08 A2991 RMK A01 T02580083  RH  033%=      5-min Rain = 0
KJU1 192051Z 17010KT 26/08 A2991 RMK A01 T02600082  RH  032%=      5-min Rain = 0
KJU1 192052Z 17010KT 26/08 A2991 RMK A01 T02600082  RH  032%=      5-min Rain = 0
KJU1 192053Z 18009KT 26/08 A2991 RMK A01 T02590082  RH  033%=      5-min Rain = 0
KJU1 192054Z 17009KT 26/08 A2991 RMK A01 T02600082  RH  032%=      5-min Rain = 0
KJU1 192055Z 18009KT 26/08 A299 RMK A01 T02590081  RH  032%=      5-min Rain = 0
KJU1 192056Z 18012KT 26/08 A299 RMK A01 T02590082  RH  033%=      5-min Rain = 0
KJU1 192057Z 17009KT 26/09 A299 RMK A01 T02590085  RH  033%=      5-min Rain = 0
KJU1 192058Z 18010KT 26/09 A299 RMK A01 T02590087  RH  033%=      5-min Rain = 0
KJU1 192059Z 20010KT 26/09 A299 RMK A01 T02600088  RH  034%=      5-min Rain = 0
KJU1 192100Z 19009KT 26/09 A299 RMK A01 T02590089  RH  034%=      5-min Rain = 0
KJU1 192101Z 19010KT 26/09 A299 RMK A01 T02570089  RH  035%=      5-min Rain = 0
KJU1 192102Z 19012KT 26/09 A299 RMK A01 T02550090  RH  035%=      5-min Rain = 0
KJU1 192103Z 20010KT 25/09 A299 RMK A01 T02520090  RH  036%=      5-min Rain = 0
KJU1 192104Z 19011KT 25/09 A299 RMK A01 T02510091  RH  036%=      5-min Rain = 0
KJU1 192105Z 19012KT 25/09 A299 RMK A01 T02510089  RH  036%=      5-min Rain = 0
KJU1 192106Z 18009KT 25/09 A299 RMK A01 T02500088  RH  036%=      5-min Rain = 0
KJU1 192107Z 18010KT 25/09 A299 RMK A01 T02490088  RH  036%=      5-min Rain = 0
KJU1 192108Z 19011KT 25/09 A299 RMK A01 T02490088  RH  036%=      5-min Rain = 0
KJU1 192109Z 19009KT 25/09 A299 RMK A01 T02480089  RH  037%=      5-min Rain = 0
KJU1 192110Z 18009KT 25/09 A299 RMK A01 T02480090  RH  037%=      5-min Rain = 0
KJU1 192111Z 16010G15KT 25/09 A299 RMK A01 T02490090  RH  036%=      5-min Rain = 0
KJU1 192112Z 17012KT 25/09 A299 RMK A01 T02510091  RH  036%=      5-min Rain = 0
KJU1 192113Z 18012KT 25/09 A299 RMK A01 T02520091  RH  036%=      5-min Rain = 0
KJU1 192114Z 18010KT 25/09 A299 RMK A01 T02530091  RH  036%=      5-min Rain = 0
KJU1 192115Z 18008KT 26/09 A299 RMK A01 T02550091  RH  036%=      5-min Rain = 0
KJU1 192116Z 19007KT 26/09 A299 RMK A01 T02560091  RH  035%=      5-min Rain = 0
KJU1 192117Z 18009KT 26/09 A299 RMK A01 T02570090  RH  035%=      5-min Rain = 0
KJU1 192118Z 20010KT 26/09 A299 RMK A01 T02560089  RH  035%=      5-min Rain = 0
KJU1 192119Z 20009KT 25/09 A299 RMK A01 T02530087  RH  035%=      5-min Rain = 0
KJU1 192120Z 17009KT 25/09 A299 RMK A01 T02510086  RH  035%=      5-min Rain = 0
KJU1 192121Z 18007KT 25/09 A299 RMK A01 T02500087  RH  036%=      5-min Rain = 0
KJU1 192122Z 18006KT 25/09 A299 RMK A01 T02490087  RH  036%=      5-min Rain = 0
KJU1 192123Z 19009KT 25/09 A299 RMK A01 T02480087  RH  036%=      5-min Rain = 0
KJU1 192124Z 19010KT 25/09 A299 RMK A01 T02480088  RH  036%=      5-min Rain = 0
KJU1 192125Z 20009KT 25/09 A299 RMK A01 T02480090  RH  037%=      5-min Rain = 0
KJU1 192126Z 19009KT 25/09 A299 RMK A01 T02490090  RH  036%=      5-min Rain = 0
KJU1 192127Z 20010KT 25/09 A299 RMK A01 T02500088  RH  036%=      5-min Rain = 0
KJU1 192128Z 18009KT 25/09 A299 RMK A01 T02510086  RH  035%=      5-min Rain = 0
KJU1 192129Z 17010KT 25/09 A299 RMK A01 T02520087  RH  035%=      5-min Rain = 0
KJU1 192130Z 17009KT 25/09 A299 RMK A01 T02540087  RH  035%=      5-min Rain = 0
KJU1 192131Z 18009KT 25/09 A299 RMK A01 T02540087  RH  035%=      5-min Rain = 0
KJU1 192132Z 17011KT 25/09 A299 RMK A01 T02540088  RH  035%=      5-min Rain = 0
KJU1 192133Z 18011KT 26/09 A299 RMK A01 T02550087  RH  035%=      5-min Rain = 0
KJU1 192134Z 18010KT 26/09 A299 RMK A01 T02550088  RH  035%=      5-min Rain = 0
KJU1 192135Z 19009KT 26/09 A299 RMK A01 T02550089  RH  035%=      5-min Rain = 0
KJU1 192136Z 18009KT 26/09 A299 RMK A01 T02560090  RH  035%=      5-min Rain = 0
KJU1 192137Z 18008KT 26/09 A299 RMK A01 T02560089  RH  035%=      5-min Rain = 0
KJU1 192138Z 18010KT 26/09 A299 RMK A01 T02570089  RH  035%=      5-min Rain = 0
KJU1 192139Z 19014KT 26/09 A299 RMK A01 T02560090  RH  035%=      5-min Rain = 0
KJU1 192140Z 17011KT 26/09 A299 RMK A01 T02550091  RH  035%=      5-min Rain = 0
KJU1 192141Z 17012KT 26/09 A299 RMK A01 T02550092  RH  036%=      5-min Rain = 0
KJU1 192142Z 17011KT 26/09 A299 RMK A01 T02550090  RH  035%=      5-min Rain = 0
KJU1 192143Z 17007KT 25/09 A299 RMK A01 T02530091  RH  036%=      5-min Rain = 0
KJU1 192144Z 17009KT 25/09 A299 RMK A01 T02540092  RH  036%=      5-min Rain = 0
KJU1 192145Z 16009KT 26/09 A299 RMK A01 T02550090  RH  035%=      5-min Rain = 0
KJU1 192146Z 16010KT 26/09 A299 RMK A01 T02550090  RH  035%=      5-min Rain = 0
KJU1 192147Z 18011KT 26/09 A299 RMK A01 T02560089  RH  035%=      5-min Rain = 0
KJU1 192148Z 18010KT 26/09 A299 RMK A01 T02560089  RH  035%=      5-min Rain = 0
KJU1 192149Z 18013KT 26/09 A299 RMK A01 T02550088  RH  035%=      5-min Rain = 0
KJU1 192150Z 18011KT 26/09 A299 RMK A01 T02550088  RH  035%=      5-min Rain = 0
KJU1 192151Z 18010KT 25/09 A299 RMK A01 T02540087  RH  035%=      5-min Rain = 0
KJU1 192152Z 18010KT 25/09 A299 RMK A01 T02530088  RH  035%=      5-min Rain = 0
KJU1 192153Z 18009KT 25/09 A299 RMK A01 T02540089  RH  035%=      5-min Rain = 0
KJU1 192154Z 19012KT 25/09 A299 RMK A01 T02540090  RH  035%=      5-min Rain = 0
KJU1 192155Z 18009KT 25/09 A299 RMK A01 T02540090  RH  035%=      5-min Rain = 0
KJU1 192156Z 17011KT 25/09 A299 RMK A01 T02540090  RH  035%=      5-min Rain = 0
KJU1 192157Z 18013KT 25/09 A299 RMK A01 T02540090  RH  035%=      5-min Rain = 0
KJU1 192158Z 18009KT 25/09 A299 RMK A01 T02530090  RH  035%=      5-min Rain = 0
KJU1 192159Z 18011KT 25/09 A299 RMK A01 T02530090  RH  036%=      5-min Rain = 0
KJU1 192200Z 17011KT 25/09 A299 RMK A01 T02530091  RH  036%=      5-min Rain = 0
KJU1 192201Z 18011KT 25/09 A299 RMK A01 T02520090  RH  036%=      5-min Rain = 0
KJU1 192202Z 18011G16KT 25/09 A299 RMK A01 T02520091  RH  036%=      5-min Rain = 0
KJU1 192203Z 17011KT 25/09 A299 RMK A01 T02520091  RH  036%=      5-min Rain = 0
KJU1 192204Z 18009KT 25/09 A299 RMK A01 T02520091  RH  036%=      5-min Rain = 0
KJU1 192205Z 18009KT 25/09 A299 RMK A01 T02520091  RH  036%=      5-min Rain = 0
KJU1 192206Z 17011KT 25/09 A299 RMK A01 T02520089  RH  035%=      5-min Rain = 0
KJU1 192207Z 16009KT 25/09 A299 RMK A01 T02520088  RH  035%=      5-min Rain = 0
KJU1 192208Z 17007KT 25/09 A299 RMK A01 T02520087  RH  035%=      5-min Rain = 0
KJU1 192209Z 18010KT 25/09 A299 RMK A01 T02520085  RH  035%=      5-min Rain = 0
KJU1 192210Z 17008KT 25/09 A299 RMK A01 T02520085  RH  035%=      5-min Rain = 0
KJU1 192211Z 18009KT 25/09 A299 RMK A01 T02530086  RH  035%=      5-min Rain = 0
KJU1 192212Z 18010KT 25/09 A299 RMK A01 T02530086  RH  035%=      5-min Rain = 0
KJU1 192213Z 18011KT 25/09 A299 RMK A01 T02530085  RH  034%=      5-min Rain = 0
KJU1 192214Z 18012KT 25/08 A299 RMK A01 T02520083  RH  034%=      5-min Rain = 0
KJU1 192215Z 18012KT 25/08 A299 RMK A01 T02510082  RH  034%=      5-min Rain = 0
KJU1 192216Z 19010KT 25/08 A299 RMK A01 T02510082  RH  034%=      5-min Rain = 0
KJU1 192217Z 18011KT 25/08 A299 RMK A01 T02510083  RH  034%=      5-min Rain = 0
KJU1 192218Z 18009KT 25/08 A299 RMK A01 T02510083  RH  034%=      5-min Rain = 0
KJU1 192219Z 19009KT 25/08 A299 RMK A01 T02510084  RH  035%=      5-min Rain = 0
KJU1 192220Z 19010KT 25/08 A299 RMK A01 T02500083  RH  034%=      5-min Rain = 0
KJU1 192221Z 20009KT 25/08 A299 RMK A01 T02510084  RH  035%=      5-min Rain = 0
KJU1 192222Z 19010KT 25/08 A299 RMK A01 T02510083  RH  034%=      5-min Rain = 0
KJU1 192223Z 19010KT 25/08 A299 RMK A01 T02500083  RH  035%=      5-min Rain = 0
KJU1 192224Z 19010KT 25/08 A299 RMK A01 T02500084  RH  035%=      5-min Rain = 0
KJU1 192225Z 17010G15KT 25/08 A299 RMK A01 T02490084  RH  035%=      5-min Rain = 0
KJU1 192226Z 18010KT 25/09 A299 RMK A01 T02490085  RH  035%=      5-min Rain = 0
KJU1 192227Z 17009KT 25/09 A299 RMK A01 T02490085  RH  035%=      5-min Rain = 0
KJU1 192228Z 17011KT 25/09 A299 RMK A01 T02490085  RH  035%=      5-min Rain = 0
KJU1 192229Z 16011KT 25/09 A299 RMK A01 T02490085  RH  035%=      5-min Rain = 0
KJU1 192230Z 16010KT 25/09 A299 RMK A01 T02480086  RH  036%=      5-min Rain = 0
KJU1 192231Z 18011KT 25/09 A299 RMK A01 T02480086  RH  036%=      5-min Rain = 0
KJU1 192232Z 17009KT 25/09 A299 RMK A01 T02480087  RH  036%=      5-min Rain = 0
KJU1 192233Z 17009KT 25/09 A299 RMK A01 T02480087  RH  036%=      5-min Rain = 0
KJU1 192234Z 17010KT 25/09 A299 RMK A01 T02480086  RH  036%=      5-min Rain = 0
KJU1 192235Z 17010KT 25/09 A299 RMK A01 T02480086  RH  036%=      5-min Rain = 0
KJU1 192236Z 17009KT 25/09 A299 RMK A01 T02470086  RH  036%=      5-min Rain = 0
KJU1 192237Z 15013KT 25/09 A299 RMK A01 T02470086  RH  036%=      5-min Rain = 0
KJU1 192238Z 17010KT 25/09 A299 RMK A01 T02470087  RH  036%=      5-min Rain = 0
KJU1 192239Z 17010G16KT 25/09 A299 RMK A01 T02470088  RH  036%=      5-min Rain = 0
KJU1 192240Z 17013KT 25/09 A299 RMK A01 T02460086  RH  036%=      5-min Rain = 0
KJU1 192241Z 16012KT 25/09 A299 RMK A01 T02460087  RH  036%=      5-min Rain = 0
KJU1 192242Z 17010KT 25/09 A299 RMK A01 T02450087  RH  036%=      5-min Rain = 0
KJU1 192243Z 18008KT 25/09 A299 RMK A01 T02450088  RH  037%=      5-min Rain = 0
KJU1 192244Z 18006KT 25/09 A299 RMK A01 T02450088  RH  037%=      5-min Rain = 0
KJU1 192245Z 18007KT 25/09 A299 RMK A01 T02450089  RH  037%=      5-min Rain = 0
KJU1 192246Z 18009KT 25/09 A299 RMK A01 T02450089  RH  037%=      5-min Rain = 0
KJU1 192247Z 17012KT 25/09 A299 RMK A01 T02450089  RH  037%=      5-min Rain = 0
KJU1 192248Z 18011KT 25/09 A299 RMK A01 T02450089  RH  037%=      5-min Rain = 0
KJU1 192249Z 18011KT 24/09 A299 RMK A01 T02440089  RH  037%=      5-min Rain = 0
KJU1 192250Z 17010KT 24/09 A299 RMK A01 T02440088  RH  037%=      5-min Rain = 0
KJU1 192251Z 18009KT 24/09 A299 RMK A01 T02430088  RH  037%=      5-min Rain = 0
KJU1 192252Z 17008KT 24/09 A299 RMK A01 T02430088  RH  037%=      5-min Rain = 0
KJU1 192253Z 16010KT 24/09 A299 RMK A01 T02430089  RH  037%=      5-min Rain = 0
KJU1 192254Z 16008KT 24/09 A299 RMK A01 T02430089  RH  037%=      5-min Rain = 0
KJU1 192255Z 16008KT 24/09 A299 RMK A01 T02420089  RH  038%=      5-min Rain = 0
KJU1 192256Z 18009KT 24/09 A299 RMK A01 T02410089  RH  038%=      5-min Rain = 0
KJU1 192257Z 17009KT 24/09 A299 RMK A01 T02410089  RH  038%=      5-min Rain = 0
KJU1 192258Z 17011KT 24/09 A299 RMK A01 T02400088  RH  038%=      5-min Rain = 0
KJU1 192259Z 17008KT 24/09 A299 RMK A01 T02390087  RH  038%=      5-min Rain = 0
KJU1 192300Z 17007KT 24/09 A299 RMK A01 T02380088  RH  038%=      5-min Rain = 0
KJU1 192301Z 17006KT 24/09 A299 RMK A01 T02370088  RH  039%=      5-min Rain = 0
KJU1 192302Z 17005KT 24/09 A299 RMK A01 T02360088  RH  039%=      5-min Rain = 0
KJU1 192303Z 17007KT 24/09 A299 RMK A01 T02350088  RH  039%=      5-min Rain = 0
KJU1 192304Z 17006KT 24/09 A299 RMK A01 T02350088  RH  039%=      5-min Rain = 0
KJU1 192305Z 16006KT 23/09 A299 RMK A01 T02340088  RH  039%=      5-min Rain = 0
KJU1 192306Z 16006KT 23/09 A299 RMK A01 T02340088  RH  039%=      5-min Rain = 0
KJU1 192307Z 16007KT 23/09 A299 RMK A01 T02330088  RH  040%=      5-min Rain = 0
KJU1 192308Z 16007KT 23/09 A299 RMK A01 T02320088  RH  040%=      5-min Rain = 0
KJU1 192309Z 17007KT 23/09 A299 RMK A01 T02320088  RH  040%=      5-min Rain = 0
KJU1 192310Z 17007KT 23/09 A299 RMK A01 T02320088  RH  040%=      5-min Rain = 0
KJU1 192311Z 17006KT 23/09 A299 RMK A01 T02310088  RH  040%=      5-min Rain = 0
KJU1 192312Z 17005KT 23/09 A299 RMK A01 T02310088  RH  040%=      5-min Rain = 0
KJU1 192313Z 16009KT 23/09 A299 RMK A01 T02290088  RH  040%=      5-min Rain = 0
KJU1 192314Z 17008KT 23/09 A299 RMK A01 T02290087  RH  040%=      5-min Rain = 0
KJU1 192315Z 17006KT 23/09 A299 RMK A01 T02290087  RH  040%=      5-min Rain = 0
KJU1 192316Z 16008KT 23/09 A299 RMK A01 T02290087  RH  040%=      5-min Rain = 0
KJU1 192317Z 17007KT 23/09 A299 RMK A01 T02290087  RH  040%=      5-min Rain = 0
KJU1 192318Z 17007KT 23/09 A299 RMK A01 T02280087  RH  040%=      5-min Rain = 0
KJU1 192319Z 17007KT 23/09 A299 RMK A01 T02280087  RH  040%=      5-min Rain = 0
KJU1 192320Z 17005KT 23/09 A299 RMK A01 T02260087  RH  041%=      5-min Rain = 0
KJU1 192321Z 17005KT 23/09 A299 RMK A01 T02250087  RH  041%=      5-min Rain = 0
KJU1 192322Z 17006KT 22/09 A299 RMK A01 T02240086  RH  041%=      5-min Rain = 0
KJU1 192323Z 17006KT 22/09 A299 RMK A01 T02240086  RH  041%=      5-min Rain = 0
KJU1 192324Z 17007KT 22/09 A299 RMK A01 T02230086  RH  041%=      5-min Rain = 0
KJU1 192325Z 17005KT 22/09 A299 RMK A01 T02230085  RH  041%=      5-min Rain = 0
KJU1 192326Z 18006KT 22/09 A299 RMK A01 T02230085  RH  041%=      5-min Rain = 0
KJU1 192327Z 17005KT 22/09 A299 RMK A01 T02220085  RH  041%=      5-min Rain = 0
KJU1 192328Z 17005KT 22/09 A299 RMK A01 T02220085  RH  042%=      5-min Rain = 0
KJU1 192329Z 17006KT 22/09 A299 RMK A01 T02210085  RH  042%=      5-min Rain = 0
KJU1 192330Z 17006KT 22/09 A299 RMK A01 T02210085  RH  042%=      5-min Rain = 0
KJU1 192331Z 16006KT 22/09 A299 RMK A01 T02210085  RH  042%=      5-min Rain = 0
KJU1 192332Z 17005KT 22/09 A299 RMK A01 T02210085  RH  042%=      5-min Rain = 0
KJU1 192333Z 17005KT 22/08 A299 RMK A01 T02200084  RH  042%=      5-min Rain = 0
KJU1 192334Z 17006KT 22/08 A299 RMK A01 T02190084  RH  042%=      5-min Rain = 0
KJU1 192335Z 17004KT 22/08 A299 RMK A01 T02180084  RH  042%=      5-min Rain = 0
KJU1 192336Z 16004KT 22/08 A299 RMK A01 T02180084  RH  042%=      5-min Rain = 0
KJU1 192337Z 17004KT 22/08 A299 RMK A01 T02160084  RH  043%=      5-min Rain = 0
KJU1 192338Z 16004KT 21/08 A299 RMK A01 T02140083  RH  043%=      5-min Rain = 0
KJU1 192339Z 16004KT 21/08 A2991 RMK A01 T02130083  RH  043%=      5-min Rain = 0
KJU1 192340Z 16004KT 21/08 A2991 RMK A01 T02120083  RH  043%=      5-min Rain = 0
KJU1 192341Z 16004KT 21/08 A2991 RMK A01 T02110083  RH  044%=      5-min Rain = 0
KJU1 192342Z 15004KT 21/08 A2991 RMK A01 T02110083  RH  044%=      5-min Rain = 0
KJU1 192343Z 16004KT 21/08 A2991 RMK A01 T02100083  RH  044%=      5-min Rain = 0
KJU1 192344Z 16005KT 21/08 A2991 RMK A01 T02090083  RH  044%=      5-min Rain = 0
KJU1 192345Z 16005KT 21/08 A2991 RMK A01 T02080083  RH  044%=      5-min Rain = 0
KJU1 192346Z 16005KT 21/08 A2991 RMK A01 T02070083  RH  045%=      5-min Rain = 0
KJU1 192347Z 16005KT 21/08 A2991 RMK A01 T02070083  RH  045%=      5-min Rain = 0
KJU1 192348Z 16005KT 21/08 A2991 RMK A01 T02070083  RH  045%=      5-min Rain = 0
KJU1 192349Z 16005KT 21/08 A2991 RMK A01 T02070083  RH  045%=      5-min Rain = 0
KJU1 192350Z 16005KT 21/08 A2991 RMK A01 T02060083  RH  045%=      5-min Rain = 0
KJU1 192351Z 16005KT 21/08 A2991 RMK A01 T02050083  RH  045%=      5-min Rain = 0
KJU1 192352Z 15005KT 20/08 A2991 RMK A01 T02040083  RH  046%=      5-min Rain = 0
KJU1 192353Z 15005KT 20/08 A2991 RMK A01 T02040083  RH  046%=      5-min Rain = 0
KJU1 192354Z 15005KT 20/08 A2991 RMK A01 T02030083  RH  046%=      5-min Rain = 0
KJU1 192355Z 15005KT 20/08 A2991 RMK A01 T02030083  RH  046%=      5-min Rain = 0
KJU1 192356Z 15005KT 20/08 A2991 RMK A01 T02030083  RH  046%=      5-min Rain = 0
KJU1 192357Z 15005KT 20/08 A2991 RMK A01 T02030083  RH  046%=      5-min Rain = 0
KJU1 192358Z 16005KT 20/08 A2991 RMK A01 T02030083  RH  046%=      5-min Rain = 0
KJU1 192359Z 16005KT 20/08 A2991 RMK A01 T02040083  RH  046%=      5-min Rain = 0
KJU1 200000Z 16005KT 20/08 A2991 RMK A01 T02030083  RH  046%=      5-min Rain = 0
KJU1 200001Z 16005KT 20/08 A2991 RMK A01 T02030083  RH  046%=      5-min Rain = 0
KJU1 200002Z 16005KT 20/08 A2991 RMK A01 T02020083  RH  046%=      5-min Rain = 0
KJU1 200003Z 16005KT 20/08 A2991 RMK A01 T02010083  RH  046%=      5-min Rain = 0
KJU1 200004Z 15005KT 20/08 A2991 RMK A01 T02000083  RH  047%=      5-min Rain = 0
KJU1 200005Z 15005KT 20/08 A2991 RMK A01 T02000082  RH  047%=      5-min Rain = 0
KJU1 200006Z 15005KT 20/08 A2991 RMK A01 T01990083  RH  047%=      5-min Rain = 0
KJU1 200007Z 15005KT 20/08 A2991 RMK A01 T01990083  RH  047%=      5-min Rain = 0
KJU1 200008Z 15004KT 20/08 A2991 RMK A01 T01980083  RH  047%=      5-min Rain = 0
KJU1 200009Z 15004KT 20/08 A2991 RMK A01 T01980083  RH  047%=      5-min Rain = 0
KJU1 200010Z 15005KT 20/08 A2991 RMK A01 T01980082  RH  047%=      5-min Rain = 0
KJU1 200011Z 15005KT 20/08 A2991 RMK A01 T01980083  RH  047%=      5-min Rain = 0
KJU1 200012Z 14005KT 20/08 A2991 RMK A01 T01980083  RH  047%=      5-min Rain = 0
KJU1 200013Z 15005KT 20/08 A2991 RMK A01 T01990083  RH  047%=      5-min Rain = 0
KJU1 200014Z 16006KT 20/08 A2991 RMK A01 T01990084  RH  047%=      5-min Rain = 0
KJU1 200015Z 15005KT 20/08 A2991 RMK A01 T01990084  RH  047%=      5-min Rain = 0
KJU1 200016Z 16005KT 20/08 A2991 RMK A01 T01990084  RH  047%=      5-min Rain = 0
KJU1 200017Z 15005KT 20/09 A2991 RMK A01 T01990085  RH  048%=      5-min Rain = 0
KJU1 200018Z 16004KT 20/09 A2991 RMK A01 T02000085  RH  048%=      5-min Rain = 0
KJU1 200019Z 17004KT 20/09 A2991 RMK A01 T01990085  RH  048%=      5-min Rain = 0
KJU1 200020Z 17005KT 20/09 A2991 RMK A01 T01980085  RH  048%=      5-min Rain = 0
KJU1 200021Z 16005KT 20/09 A2991 RMK A01 T01970085  RH  048%=      5-min Rain = 0
KJU1 200022Z 16005KT 20/09 A2991 RMK A01 T01970085  RH  048%=      5-min Rain = 0
KJU1 200023Z 16005KT 20/09 A2991 RMK A01 T01970086  RH  049%=      5-min Rain = 0
KJU1 200024Z 16006KT 20/09 A2991 RMK A01 T01970087  RH  049%=      5-min Rain = 0
KJU1 200025Z 16006KT 20/09 A2991 RMK A01 T01970087  RH  049%=      5-min Rain = 0
KJU1 200026Z 17006KT 20/09 A2991 RMK A01 T01980088  RH  049%=      5-min Rain = 0
KJU1 200027Z 17005KT 20/09 A2991 RMK A01 T01980087  RH  049%=      5-min Rain = 0
KJU1 200028Z 17005KT 20/09 A2992 RMK A01 T01970088  RH  049%=      5-min Rain = 0
KJU1 200029Z 17005KT 20/09 A2992 RMK A01 T01960088  RH  049%=      5-min Rain = 0
KJU1 200030Z 17005KT 20/09 A2992 RMK A01 T01960088  RH  050%=      5-min Rain = 0
KJU1 200031Z 17005KT 20/09 A2992 RMK A01 T01950088  RH  050%=      5-min Rain = 0
KJU1 200032Z 17005KT 19/09 A2992 RMK A01 T01940088  RH  050%=      5-min Rain = 0
KJU1 200033Z 17005KT 19/09 A2992 RMK A01 T01940088  RH  050%=      5-min Rain = 0
KJU1 200034Z 17005KT 19/09 A2992 RMK A01 T01930088  RH  050%=      5-min Rain = 0
KJU1 200035Z 17005KT 19/09 A2992 RMK A01 T01920088  RH  051%=      5-min Rain = 0
KJU1 200036Z 17004KT 19/09 A2992 RMK A01 T01920088  RH  051%=      5-min Rain = 0
KJU1 200037Z 17004KT 19/09 A2992 RMK A01 T01910088  RH  051%=      5-min Rain = 0
KJU1 200038Z 17004KT 19/09 A2992 RMK A01 T01910088  RH  051%=      5-min Rain = 0
KJU1 200039Z 17005KT 19/09 A2992 RMK A01 T01900088  RH  051%=      5-min Rain = 0
KJU1 200040Z 17004KT 19/09 A2992 RMK A01 T01900088  RH  051%=      5-min Rain = 0
KJU1 200041Z 17005KT 19/09 A2992 RMK A01 T01900088  RH  051%=      5-min Rain = 0
KJU1 200042Z 17004KT 19/09 A2992 RMK A01 T01890088  RH  052%=      5-min Rain = 0
KJU1 200043Z 17005KT 19/09 A2992 RMK A01 T01880088  RH  052%=      5-min Rain = 0
KJU1 200044Z 16005KT 19/09 A2992 RMK A01 T01880088  RH  052%=      5-min Rain = 0
KJU1 200045Z 17006KT 19/09 A2992 RMK A01 T01880088  RH  052%=      5-min Rain = 0
KJU1 200046Z 17005KT 19/09 A2992 RMK A01 T01880089  RH  052%=      5-min Rain = 0
KJU1 200047Z 17005KT 19/09 A2992 RMK A01 T01880089  RH  052%=      5-min Rain = 0
KJU1 200048Z 17005KT 19/09 A2992 RMK A01 T01880089  RH  052%=      5-min Rain = 0
KJU1 200049Z 17006KT 19/09 A2992 RMK A01 T01880089  RH  053%=      5-min Rain = 0
KJU1 200050Z 18007KT 19/09 A2992 RMK A01 T01890090  RH  052%=      5-min Rain = 0
KJU1 200051Z 18006KT 19/09 A2992 RMK A01 T01900090  RH  052%=      5-min Rain = 0
KJU1 200052Z 18005KT 19/09 A2992 RMK A01 T01900091  RH  052%=      5-min Rain = 0
KJU1 200053Z 18005KT 19/09 A2992 RMK A01 T01900090  RH  052%=      5-min Rain = 0
KJU1 200054Z 18005KT 19/09 A2992 RMK A01 T01890090  RH  052%=      5-min Rain = 0
KJU1 200055Z 17006KT 19/09 A2992 RMK A01 T01890090  RH  053%=      5-min Rain = 0
KJU1 200056Z 18005KT 19/09 A2992 RMK A01 T01900091  RH  052%=      5-min Rain = 0
KJU1 200057Z 18005KT 19/09 A2992 RMK A01 T01900091  RH  052%=      5-min Rain = 0
KJU1 200058Z 18005KT 19/09 A2992 RMK A01 T01900091  RH  052%=      5-min Rain = 0
KJU1 200059Z 18005KT 19/09 A2992 RMK A01 T01890091  RH  053%=      5-min Rain = 0
KJU1 200100Z 18004KT 19/09 A2992 RMK A01 T01890091  RH  053%=      5-min Rain = 0
KJU1 200101Z 18005KT 19/09 A2992 RMK A01 T01890091  RH  053%=      5-min Rain = 0
KJU1 200102Z 18005KT 19/09 A2992 RMK A01 T01890091  RH  053%=      5-min Rain = 0
KJU1 200103Z 19005KT 19/09 A2992 RMK A01 T01890092  RH  053%=      5-min Rain = 0
KJU1 200104Z 19005KT 19/09 A2992 RMK A01 T01880092  RH  053%=      5-min Rain = 0
KJU1 200105Z 18006KT 19/09 A2992 RMK A01 T01890093  RH  053%=      5-min Rain = 0
KJU1 200106Z 19005KT 19/09 A2993 RMK A01 T01900093  RH  053%=      5-min Rain = 0
KJU1 200107Z 19005KT 19/09 A2993 RMK A01 T01900093  RH  053%=      5-min Rain = 0
KJU1 200108Z 19003KT 19/09 A2993 RMK A01 T01880092  RH  053%=      5-min Rain = 0
KJU1 200109Z 19004KT 19/09 A2993 RMK A01 T01870092  RH  054%=      5-min Rain = 0
KJU1 200110Z 19004KT 19/09 A2993 RMK A01 T01860091  RH  054%=      5-min Rain = 0
KJU1 200111Z 19005KT 19/09 A2993 RMK A01 T01850092  RH  054%=      5-min Rain = 0
KJU1 200112Z 19005KT 19/09 A2993 RMK A01 T01850092  RH  055%=      5-min Rain = 0
KJU1 200113Z 19005KT 19/09 A2993 RMK A01 T01850092  RH  055%=      5-min Rain = 0
KJU1 200114Z 18004KT 18/09 A2993 RMK A01 T01840093  RH  055%=      5-min Rain = 0
KJU1 200115Z 18004KT 18/09 A2993 RMK A01 T01840093  RH  055%=      5-min Rain = 0
KJU1 200116Z 18004KT 18/09 A2993 RMK A01 T01840093  RH  055%=      5-min Rain = 0
KJU1 200117Z 18004KT 18/09 A2993 RMK A01 T01840092  RH  055%=      5-min Rain = 0
KJU1 200118Z 18004KT 18/09 A2992 RMK A01 T01830093  RH  055%=      5-min Rain = 0
KJU1 200119Z 18004KT 18/09 A2992 RMK A01 T01830092  RH  056%=      5-min Rain = 0
KJU1 200120Z 19004KT 18/09 A2992 RMK A01 T01820093  RH  056%=      5-min Rain = 0
KJU1 200121Z 19004KT 18/09 A2992 RMK A01 T01810093  RH  056%=      5-min Rain = 0
KJU1 200122Z 19004KT 18/09 A2992 RMK A01 T01800093  RH  057%=      5-min Rain = 0
KJU1 200123Z 19005KT 18/09 A2992 RMK A01 T01790094  RH  057%=      5-min Rain = 0
KJU1 200124Z 19004KT 18/09 A2992 RMK A01 T01790094  RH  057%=      5-min Rain = 0
KJU1 200125Z 20004KT 18/09 A2992 RMK A01 T01790094  RH  057%=      5-min Rain = 0
KJU1 200126Z 20004KT 18/09 A2992 RMK A01 T01790094  RH  058%=      5-min Rain = 0
KJU1 200127Z 19005KT 18/09 A2992 RMK A01 T01790094  RH  058%=      5-min Rain = 0
KJU1 200128Z 19004KT 18/09 A2992 RMK A01 T01780094  RH  058%=      5-min Rain = 0
KJU1 200129Z 19004KT 18/09 A2992 RMK A01 T01780094  RH  058%=      5-min Rain = 0
KJU1 200130Z 19003KT 18/09 A2992 RMK A01 T01770094  RH  058%=      5-min Rain = 0
KJU1 200131Z 18004KT 18/09 A2992 RMK A01 T01760094  RH  058%=      5-min Rain = 0
KJU1 200132Z 19003KT 18/09 A2992 RMK A01 T01760094  RH  059%=      5-min Rain = 0
KJU1 200133Z 19004KT 18/09 A2992 RMK A01 T01760094  RH  059%=      5-min Rain = 0
KJU1 200134Z 19005KT 18/10 A2992 RMK A01 T01750095  RH  059%=      5-min Rain = 0
KJU1 200135Z 19004KT 18/10 A2993 RMK A01 T01760096  RH  059%=      5-min Rain = 0
KJU1 200136Z 19004KT 18/10 A2993 RMK A01 T01760096  RH  059%=      5-min Rain = 0
KJU1 200137Z 19003KT 18/10 A2993 RMK A01 T01760096  RH  059%=      5-min Rain = 0
KJU1 200138Z 19004KT 18/10 A2993 RMK A01 T01760096  RH  059%=      5-min Rain = 0
KJU1 200139Z 19003KT 18/10 A2993 RMK A01 T01750096  RH  059%=      5-min Rain = 0
KJU1 200140Z 20003KT 18/10 A2993 RMK A01 T01750096  RH  060%=      5-min Rain = 0
KJU1 200141Z 19003KT 17/10 A2993 RMK A01 T01740096  RH  060%=      5-min Rain = 0
KJU1 200142Z 18003KT 17/10 A2993 RMK A01 T01740096  RH  060%=      5-min Rain = 0
KJU1 200143Z 19003KT 17/10 A2993 RMK A01 T01730096  RH  060%=      5-min Rain = 0
KJU1 200144Z 18002KT 17/10 A2993 RMK A01 T01730097  RH  061%=      5-min Rain = 0
KJU1 200145Z 18002KT 17/10 A2993 RMK A01 T01730097  RH  061%=      5-min Rain = 0
KJU1 200146Z 18004KT 17/10 A2993 RMK A01 T01720097  RH  061%=      5-min Rain = 0
KJU1 200147Z 19004KT 17/10 A2993 RMK A01 T01720098  RH  062%=      5-min Rain = 0
KJU1 200148Z 19003KT 17/10 A2993 RMK A01 T01740099  RH  061%=      5-min Rain = 0
KJU1 200149Z 19003KT 18/10 A2993 RMK A01 T01750099  RH  061%=      5-min Rain = 0
KJU1 200150Z 19003KT 18/10 A2993 RMK A01 T01750099  RH  061%=      5-min Rain = 0
KJU1 200151Z 19003KT 18/10 A2993 RMK A01 T01750098  RH  060%=      5-min Rain = 0
KJU1 200152Z 19003KT 17/10 A2993 RMK A01 T01740097  RH  061%=      5-min Rain = 0
KJU1 200153Z 18003KT 17/10 A2993 RMK A01 T01730098  RH  061%=      5-min Rain = 0
KJU1 200154Z 19004KT 17/10 A2993 RMK A01 T01720098  RH  062%=      5-min Rain = 0
KJU1 200155Z 19004KT 17/10 A2993 RMK A01 T01710098  RH  062%=      5-min Rain = 0
KJU1 200156Z 19003KT 17/10 A2993 RMK A01 T01710099  RH  063%=      5-min Rain = 0
KJU1 200157Z 20003KT 17/10 A2993 RMK A01 T01710099  RH  062%=      5-min Rain = 0
KJU1 200158Z 20003KT 17/10 A2993 RMK A01 T01710099  RH  062%=      5-min Rain = 0
KJU1 200159Z 21003KT 17/10 A2993 RMK A01 T01710098  RH  062%=      5-min Rain = 0
KJU1 200200Z 19002KT 17/10 A2993 RMK A01 T01700098  RH  063%=      5-min Rain = 0
KJU1 200201Z 20003KT 17/10 A2993 RMK A01 T01690098  RH  063%=      5-min Rain = 0
KJU1 200202Z 20003KT 17/10 A2993 RMK A01 T01700099  RH  063%=      5-min Rain = 0
KJU1 200203Z 20003KT 17/10 A2993 RMK A01 T01700099  RH  063%=      5-min Rain = 0
KJU1 200204Z 19002KT 17/10 A2993 RMK A01 T01700099  RH  063%=      5-min Rain = 0
KJU1 200205Z 20002KT 17/10 A2993 RMK A01 T01690099  RH  063%=      5-min Rain = 0
KJU1 200206Z 20002KT 17/10 A2993 RMK A01 T01690099  RH  063%=      5-min Rain = 0
KJU1 200207Z 21002KT 17/10 A2993 RMK A01 T01680099  RH  064%=      5-min Rain = 0
KJU1 200208Z 21002KT 17/10 A2993 RMK A01 T01680097  RH  063%=      5-min Rain = 0
KJU1 200209Z 23002KT 17/10 A2993 RMK A01 T01670097  RH  063%=      5-min Rain = 0
KJU1 200210Z 23002KT 17/10 A2993 RMK A01 T01660099  RH  064%=      5-min Rain = 0
KJU1 200211Z 22003KT 17/10 A2993 RMK A01 T01650097  RH  064%=      5-min Rain = 0
KJU1 200212Z 20003KT 16/10 A2993 RMK A01 T01620096  RH  065%=      5-min Rain = 0
KJU1 200213Z 22002KT 16/10 A2993 RMK A01 T01610098  RH  066%=      5-min Rain = 0
KJU1 200214Z 24002KT 16/10 A2993 RMK A01 T01620099  RH  066%=      5-min Rain = 0
KJU1 200215Z 25001KT 16/10 A2993 RMK A01 T01620099  RH  066%=      5-min Rain = 0
KJU1 200216Z 28001KT 16/10 A2993 RMK A01 T01600096  RH  066%=      5-min Rain = 0
KJU1 200217Z 23000KT 16/10 A2993 RMK A01 T01580097  RH  067%=      5-min Rain = 0
KJU1 200218Z 00000KT 16/10 A2993 RMK A01 T01570098  RH  068%=      5-min Rain = 0
KJU1 200219Z 17000KT 16/10 A2993 RMK A01 T01570098  RH  068%=      5-min Rain = 0
KJU1 200220Z 21001KT 16/10 A2993 RMK A01 T01560097  RH  068%=      5-min Rain = 0
KJU1 200221Z 20001KT 15/10 A2993 RMK A01 T01540097  RH  069%=      5-min Rain = 0
KJU1 200222Z 19002KT 15/10 A2993 RMK A01 T01530097  RH  069%=      5-min Rain = 0
KJU1 200223Z 21001KT 15/10 A2993 RMK A01 T01520096  RH  069%=      5-min Rain = 0
KJU1 200224Z 17002KT 15/10 A2993 RMK A01 T01510097  RH  070%=      5-min Rain = 0
KJU1 200225Z 19002KT 15/10 A2993 RMK A01 T01500097  RH  070%=      5-min Rain = 0
KJU1 200226Z 17002KT 15/10 A2993 RMK A01 T01500099  RH  071%=      5-min Rain = 0
KJU1 200227Z 17002KT 15/10 A2993 RMK A01 T01500100  RH  072%=      5-min Rain = 0
KJU1 200228Z 19002KT 15/10 A2993 RMK A01 T01500099  RH  071%=      5-min Rain = 0
KJU1 200229Z 20002KT 15/10 A2993 RMK A01 T01500099  RH  071%=      5-min Rain = 0
KJU1 200230Z 19003KT 15/10 A2993 RMK A01 T01490099  RH  072%=      5-min Rain = 0
KJU1 200231Z 20003KT 15/11 A2993 RMK A01 T01520107  RH  075%=      5-min Rain = 0
KJU1 200232Z 20002KT 16/11 A2993 RMK A01 T01560105  RH  072%=      5-min Rain = 0
KJU1 200233Z 20002KT 16/10 A2993 RMK A01 T01560104  RH  071%=      5-min Rain = 0
KJU1 200234Z 19003KT 16/10 A2993 RMK A01 T01560104  RH  071%=      5-min Rain = 0
KJU1 200235Z 17002KT 16/11 A2993 RMK A01 T01560105  RH  072%=      5-min Rain = 0
KJU1 200236Z 21003KT 16/11 A2993 RMK A01 T01560106  RH  072%=      5-min Rain = 0
KJU1 200237Z 19003KT 16/11 A2993 RMK A01 T01570108  RH  073%=      5-min Rain = 0
KJU1 200238Z 18003KT 16/11 A2993 RMK A01 T01580109  RH  073%=      5-min Rain = 0
KJU1 200239Z 17004KT 16/11 A2993 RMK A01 T01590109  RH  072%=      5-min Rain = 0
KJU1 200240Z 19002KT 16/11 A2993 RMK A01 T01600112  RH  073%=      5-min Rain = 0
KJU1 200241Z 18003KT 16/11 A2993 RMK A01 T01620111  RH  072%=      5-min Rain = 0
KJU1 200242Z 17001KT 16/11 A2993 RMK A01 T01630112  RH  072%=      5-min Rain = 0
KJU1 200243Z 18001KT 16/11 A2993 RMK A01 T01620108  RH  070%=      5-min Rain = 0
KJU1 200244Z 20002KT 16/10 A2993 RMK A01 T01590103  RH  070%=      5-min Rain = 0
KJU1 200245Z 21001KT 16/11 A2993 RMK A01 T01560105  RH  071%=      5-min Rain = 0
KJU1 200246Z 23000KT 15/10 A2993 RMK A01 T01540102  RH  071%=      5-min Rain = 0
KJU1 200247Z 23001KT 15/10 A2993 RMK A01 T01530104  RH  073%=      5-min Rain = 0
KJU1 200248Z 25001KT 15/10 A2993 RMK A01 T01520104  RH  073%=      5-min Rain = 0
KJU1 200249Z 23001KT 15/10 A2993 RMK A01 T01490101  RH  073%=      5-min Rain = 0
KJU1 200250Z 22001KT 15/10 A2993 RMK A01 T01480102  RH  074%=      5-min Rain = 0
KJU1 200251Z 20001KT 15/10 A2994 RMK A01 T01470103  RH  075%=      5-min Rain = 0
KJU1 200252Z 21002KT 15/11 A2994 RMK A01 T01480107  RH  077%=      5-min Rain = 0
KJU1 200253Z 22002KT 15/11 A2994 RMK A01 T01490108  RH  077%=      5-min Rain = 0
KJU1 200254Z 25002KT 15/11 A2994 RMK A01 T01490106  RH  075%=      5-min Rain = 0
KJU1 200255Z 24002KT 15/11 A2994 RMK A01 T01480107  RH  076%=      5-min Rain = 0
KJU1 200256Z 24002KT 15/10 A2994 RMK A01 T01470104  RH  075%=      5-min Rain = 0
KJU1 200257Z 23002KT 15/10 A2994 RMK A01 T01450103  RH  076%=      5-min Rain = 0
KJU1 200258Z 24002KT 15/11 A2994 RMK A01 T01450105  RH  077%=      5-min Rain = 0
KJU1 200259Z 24003KT 15/11 A2994 RMK A01 T01470111  RH  079%=      5-min Rain = 0
KJU1 200300Z 24003KT 15/11 A2994 RMK A01 T01500112  RH  078%=      5-min Rain = 0
KJU1 200301Z 24002KT 15/11 A2994 RMK A01 T01490107  RH  076%=      5-min Rain = 0
KJU1 200302Z 23002KT 15/11 A2994 RMK A01 T01470105  RH  076%=      5-min Rain = 0
KJU1 200303Z 25002KT 15/10 A2994 RMK A01 T01450103  RH  076%=      5-min Rain = 0
KJU1 200304Z 25003KT 14/10 A2994 RMK A01 T01430101  RH  076%=      5-min Rain = 0
KJU1 200305Z 24003KT 14/11 A2994 RMK A01 T01420107  RH  079%=      5-min Rain = 0
KJU1 200306Z 23003KT 15/12 A2994 RMK A01 T01480115  RH  080%=      5-min Rain = 0
KJU1 200307Z 21002KT 15/11 A2994 RMK A01 T01490109  RH  077%=      5-min Rain = 0
KJU1 200308Z 26002KT 15/11 A2994 RMK A01 T01490111  RH  078%=      5-min Rain = 0
KJU1 200309Z 21002KT 15/11 A2994 RMK A01 T01490111  RH  078%=      5-min Rain = 0
KJU1 200310Z 21004KT 15/11 A2994 RMK A01 T01500111  RH  078%=      5-min Rain = 0
KJU1 200311Z 21003KT 15/11 A2994 RMK A01 T01510114  RH  078%=      5-min Rain = 0
KJU1 200312Z 22004KT 15/11 A2994 RMK A01 T01520114  RH  078%=      5-min Rain = 0
KJU1 200313Z 20002KT 15/11 A2995 RMK A01 T01540114  RH  077%=      5-min Rain = 0
KJU1 200314Z 20003KT 16/12 A2995 RMK A01 T01550116  RH  078%=      5-min Rain = 0
KJU1 200315Z 22003KT 16/12 A2995 RMK A01 T01570119  RH  078%=      5-min Rain = 0
KJU1 200316Z 20004KT 16/12 A2995 RMK A01 T01600119  RH  077%=      5-min Rain = 0
KJU1 200317Z 21004KT 16/12 A2995 RMK A01 T01600117  RH  076%=      5-min Rain = 0
KJU1 200318Z 20005KT 16/12 A2995 RMK A01 T01610120  RH  077%=      5-min Rain = 0
KJU1 200319Z 19003KT 17/12 A2995 RMK A01 T01650122  RH  076%=      5-min Rain = 0
KJU1 200320Z 18004KT 17/12 A2995 RMK A01 T01670121  RH  074%=      5-min Rain = 0
KJU1 200321Z 20003KT 17/12 A2995 RMK A01 T01670120  RH  074%=      5-min Rain = 0
KJU1 200322Z 19003KT 17/12 A2995 RMK A01 T01660119  RH  074%=      5-min Rain = 0
KJU1 200323Z 19003KT 17/12 A2995 RMK A01 T01660119  RH  074%=      5-min Rain = 0
KJU1 200324Z 20003KT 17/12 A2994 RMK A01 T01660119  RH  074%=      5-min Rain = 0
KJU1 200325Z 21003KT 16/12 A2994 RMK A01 T01640118  RH  074%=      5-min Rain = 0
KJU1 200326Z 20004KT 17/12 A2994 RMK A01 T01650121  RH  075%=      5-min Rain = 0
KJU1 200327Z 21003KT 17/12 A2994 RMK A01 T01670121  RH  074%=      5-min Rain = 0
KJU1 200328Z 20004KT 17/12 A2994 RMK A01 T01670120  RH  074%=      5-min Rain = 0
KJU1 200329Z 21003KT 17/12 A2994 RMK A01 T01660119  RH  074%=      5-min Rain = 0
KJU1 200330Z 20004KT 17/12 A2994 RMK A01 T01650120  RH  074%=      5-min Rain = 0
KJU1 200331Z 19003KT 17/12 A2994 RMK A01 T01650119  RH  074%=      5-min Rain = 0
KJU1 200332Z 20003KT 17/12 A2994 RMK A01 T01650120  RH  075%=      5-min Rain = 0
KJU1 200333Z 21002KT 16/12 A2994 RMK A01 T01640119  RH  075%=      5-min Rain = 0
KJU1 200334Z 20004KT 16/12 A2994 RMK A01 T01630118  RH  075%=      5-min Rain = 0
KJU1 200335Z 21004KT 16/12 A2994 RMK A01 T01630119  RH  075%=      5-min Rain = 0
KJU1 200336Z 19002KT 16/12 A2994 RMK A01 T01630121  RH  076%=      5-min Rain = 0
KJU1 200337Z 21003KT 16/12 A2994 RMK A01 T01640119  RH  075%=      5-min Rain = 0
KJU1 200338Z 20002KT 16/12 A2994 RMK A01 T01640120  RH  075%=      5-min Rain = 0
KJU1 200339Z 21001KT 16/12 A2994 RMK A01 T01620117  RH  075%=      5-min Rain = 0
KJU1 200340Z 20003KT 16/12 A2994 RMK A01 T01610117  RH  075%=      5-min Rain = 0
KJU1 200341Z 20003KT 16/12 A2994 RMK A01 T01610119  RH  076%=      5-min Rain = 0
KJU1 200342Z 19003KT 16/12 A2994 RMK A01 T01610120  RH  076%=      5-min Rain = 0
KJU1 200343Z 20003KT 16/12 A2994 RMK A01 T01630120  RH  076%=      5-min Rain = 0
KJU1 200344Z 20003KT 16/12 A2994 RMK A01 T01630120  RH  076%=      5-min Rain = 0
KJU1 200345Z 19004KT 16/12 A2994 RMK A01 T01630120  RH  075%=      5-min Rain = 0
KJU1 200346Z 21004KT 16/12 A2994 RMK A01 T01630120  RH  075%=      5-min Rain = 0
KJU1 200347Z 19004KT 16/12 A2994 RMK A01 T01640121  RH  076%=      5-min Rain = 0
KJU1 200348Z 20003KT 16/12 A2994 RMK A01 T01640121  RH  076%=      5-min Rain = 0
KJU1 200349Z 20003KT 17/12 A2994 RMK A01 T01650122  RH  076%=      5-min Rain = 0
KJU1 200350Z 19003KT 17/12 A2994 RMK A01 T01660122  RH  075%=      5-min Rain = 0
KJU1 200351Z 21003KT 17/12 A2994 RMK A01 T01670122  RH  075%=      5-min Rain = 0
KJU1 200352Z 21004KT 17/12 A2994 RMK A01 T01670122  RH  075%=      5-min Rain = 0
KJU1 200353Z 21003KT 17/12 A2994 RMK A01 T01670122  RH  074%=      5-min Rain = 0
KJU1 200354Z 22003KT 17/12 A2994 RMK A01 T01670121  RH  074%=      5-min Rain = 0
KJU1 200355Z 22003KT 17/12 A2994 RMK A01 T01670121  RH  074%=      5-min Rain = 0
KJU1 200356Z 23004KT 17/12 A2994 RMK A01 T01660121  RH  075%=      5-min Rain = 0
KJU1 200357Z 22004KT 17/12 A2994 RMK A01 T01660122  RH  075%=      5-min Rain = 0
KJU1 200358Z 23004KT 17/12 A2994 RMK A01 T01670122  RH  075%=      5-min Rain = 0
KJU1 200359Z 23004KT 17/12 A2994 RMK A01 T01670121  RH  074%=      5-min Rain = 0
KJU1 200400Z 23004KT 17/12 A2994 RMK A01 T01660121  RH  074%=      5-min Rain = 0
KJU1 200401Z 21005KT 17/12 A2994 RMK A01 T01660120  RH  075%=      5-min Rain = 0
KJU1 200402Z 22004KT 17/12 A2994 RMK A01 T01650121  RH  075%=      5-min Rain = 0
KJU1 200403Z 21004KT 17/12 A2994 RMK A01 T01650121  RH  075%=      5-min Rain = 0
KJU1 200404Z 22004KT 17/12 A2994 RMK A01 T01650122  RH  075%=      5-min Rain = 0
KJU1 200405Z 21003KT 17/12 A2994 RMK A01 T01660122  RH  075%=      5-min Rain = 0
KJU1 200406Z 20004KT 17/12 A2994 RMK A01 T01650121  RH  075%=      5-min Rain = 0
KJU1 200407Z 22004KT 16/12 A2994 RMK A01 T01640121  RH  075%=      5-min Rain = 0
KJU1 200408Z 21004KT 16/12 A2994 RMK A01 T01640121  RH  076%=      5-min Rain = 0
KJU1 200409Z 20003KT 16/12 A2994 RMK A01 T01640121  RH  076%=      5-min Rain = 0
KJU1 200410Z 20003KT 16/12 A2994 RMK A01 T01630120  RH  076%=      5-min Rain = 0
KJU1 200411Z 21005KT 16/12 A2994 RMK A01 T01620120  RH  076%=      5-min Rain = 0
KJU1 200412Z 20004KT 16/12 A2994 RMK A01 T01630121  RH  077%=      5-min Rain = 0
KJU1 200413Z 20004KT 16/12 A2994 RMK A01 T01630120  RH  076%=      5-min Rain = 0
KJU1 200414Z 19004KT 16/12 A2994 RMK A01 T01630121  RH  076%=      5-min Rain = 0
KJU1 200415Z 20003KT 16/12 A2994 RMK A01 T01620120  RH  076%=      5-min Rain = 0
KJU1 200416Z 19003KT 16/12 A2994 RMK A01 T01600118  RH  076%=      5-min Rain = 0
KJU1 200417Z 20003KT 16/12 A2994 RMK A01 T01600120  RH  077%=      5-min Rain = 0
KJU1 200418Z 18003KT 16/12 A2994 RMK A01 T01600121  RH  078%=      5-min Rain = 0
KJU1 200419Z 19004KT 16/12 A2994 RMK A01 T01620122  RH  077%=      5-min Rain = 0
KJU1 200420Z 19003KT 16/12 A2994 RMK A01 T01620122  RH  077%=      5-min Rain = 0
KJU1 200421Z 20003KT 16/12 A2994 RMK A01 T01630121  RH  076%=      5-min Rain = 0
KJU1 200422Z 20003KT 16/12 A2994 RMK A01 T01610119  RH  076%=      5-min Rain = 0
KJU1 200423Z 21003KT 16/12 A2994 RMK A01 T01600119  RH  077%=      5-min Rain = 0
KJU1 200424Z 19004KT 16/12 A2994 RMK A01 T01590119  RH  077%=      5-min Rain = 0
KJU1 200425Z 20004KT 16/12 A2994 RMK A01 T01590120  RH  078%=      5-min Rain = 0
KJU1 200426Z 20003KT 16/12 A2994 RMK A01 T01590119  RH  077%=      5-min Rain = 0
KJU1 200427Z 19004KT 16/12 A2994 RMK A01 T01600121  RH  078%=      5-min Rain = 0
KJU1 200428Z 20004KT 16/12 A2994 RMK A01 T01610122  RH  078%=      5-min Rain = 0
KJU1 200429Z 19003KT 16/12 A2994 RMK A01 T01610121  RH  077%=      5-min Rain = 0
KJU1 200430Z 18003KT 16/12 A2994 RMK A01 T01610121  RH  077%=      5-min Rain = 0
KJU1 200431Z 21004KT 16/12 A2994 RMK A01 T01620122  RH  077%=      5-min Rain = 0
KJU1 200432Z 20004KT 16/12 A2994 RMK A01 T01620122  RH  077%=      5-min Rain = 0
KJU1 200433Z 20004KT 16/12 A2994 RMK A01 T01630122  RH  077%=      5-min Rain = 0
KJU1 200434Z 20003KT 16/12 A2994 RMK A01 T01630122  RH  076%=      5-min Rain = 0
KJU1 200435Z 20003KT 16/12 A2994 RMK A01 T01630122  RH  077%=      5-min Rain = 0
KJU1 200436Z 21003KT 16/12 A2994 RMK A01 T01630122  RH  076%=      5-min Rain = 0
KJU1 200437Z 21003KT 16/12 A2994 RMK A01 T01630122  RH  076%=      5-min Rain = 0
KJU1 200438Z 20003KT 16/12 A2994 RMK A01 T01630122  RH  077%=      5-min Rain = 0
KJU1 200439Z 19003KT 16/12 A2994 RMK A01 T01630122  RH  077%=      5-min Rain = 0
KJU1 200440Z 19002KT 16/12 A2994 RMK A01 T01630122  RH  077%=      5-min Rain = 0
KJU1 200441Z 20003KT 16/12 A2994 RMK A01 T01620122  RH  077%=      5-min Rain = 0
KJU1 200442Z 19004KT 16/12 A2994 RMK A01 T01620122  RH  077%=      5-min Rain = 0
KJU1 200443Z 18003KT 16/12 A2994 RMK A01 T01620121  RH  077%=      5-min Rain = 0
KJU1 200444Z 18004KT 16/12 A2994 RMK A01 T01620120  RH  076%=      5-min Rain = 0
KJU1 200445Z 19004KT 16/12 A2994 RMK A01 T01610121  RH  077%=      5-min Rain = 0
KJU1 200446Z 20005KT 16/12 A2994 RMK A01 T01610122  RH  077%=      5-min Rain = 0
KJU1 200447Z 19004KT 16/12 A2994 RMK A01 T01610121  RH  077%=      5-min Rain = 0
KJU1 200448Z 18003KT 16/12 A2994 RMK A01 T01610121  RH  077%=      5-min Rain = 0
KJU1 200449Z 19003KT 16/12 A2994 RMK A01 T01610122  RH  077%=      5-min Rain = 0
KJU1 200450Z 19002KT 16/12 A2993 RMK A01 T01610122  RH  078%=      5-min Rain = 0
KJU1 200451Z 19004KT 16/12 A2993 RMK A01 T01610122  RH  078%=      5-min Rain = 0
KJU1 200452Z 18004KT 16/12 A2993 RMK A01 T01620122  RH  077%=      5-min Rain = 0
KJU1 200453Z 18003KT 16/12 A2993 RMK A01 T01610121  RH  077%=      5-min Rain = 0
KJU1 200454Z 18003KT 16/12 A2993 RMK A01 T01610121  RH  077%=      5-min Rain = 0
KJU1 200455Z 19004KT 16/12 A2993 RMK A01 T01590119  RH  077%=      5-min Rain = 0
KJU1 200456Z 19002KT 16/12 A2993 RMK A01 T01590121  RH  078%=      5-min Rain = 0
KJU1 200457Z 19003KT 16/12 A2993 RMK A01 T01590122  RH  078%=      5-min Rain = 0
KJU1 200458Z 20003KT 16/12 A2993 RMK A01 T01590122  RH  078%=      5-min Rain = 0
KJU1 200459Z 19004KT 16/12 A2993 RMK A01 T01600122  RH  078%=      5-min Rain = 0
KJU1 200500Z 19002KT 16/12 A2993 RMK A01 T01600121  RH  077%=      5-min Rain = 0
KJU1 200501Z 19003KT 16/12 A2993 RMK A01 T01590120  RH  078%=      5-min Rain = 0
KJU1 200502Z 19005KT 16/12 A2993 RMK A01 T01590121  RH  078%=      5-min Rain = 0
KJU1 200503Z 19005KT 16/12 A2993 RMK A01 T01600122  RH  078%=      5-min Rain = 0
KJU1 200504Z 17003KT 16/12 A2993 RMK A01 T01610123  RH  078%=      5-min Rain = 0
KJU1 200505Z 18003KT 16/12 A2993 RMK A01 T01610122  RH  078%=      5-min Rain = 0
KJU1 200506Z 18003KT 16/12 A2993 RMK A01 T01610122  RH  078%=      5-min Rain = 0
KJU1 200507Z 18004KT 16/12 A2993 RMK A01 T01610122  RH  078%=      5-min Rain = 0
KJU1 200508Z 19003KT 16/12 A2993 RMK A01 T01620123  RH  078%=      5-min Rain = 0
KJU1 200509Z 18003KT 16/12 A2993 RMK A01 T01620122  RH  077%=      5-min Rain = 0
KJU1 200510Z 19004KT 16/12 A2993 RMK A01 T01620122  RH  077%=      5-min Rain = 0
KJU1 200511Z 20005KT 16/12 A2993 RMK A01 T01610123  RH  078%=      5-min Rain = 0
KJU1 200512Z 20004KT 16/12 A2993 RMK A01 T01620123  RH  078%=      5-min Rain = 0
KJU1 200513Z 19004KT 16/12 A2993 RMK A01 T01630124  RH  077%=      5-min Rain = 0
KJU1 200514Z 20005KT 16/12 A2993 RMK A01 T01630123  RH  077%=      5-min Rain = 0
KJU1 200515Z 19004KT 16/12 A2993 RMK A01 T01630123  RH  077%=      5-min Rain = 0
KJU1 200516Z 20005KT 16/12 A2993 RMK A01 T01640124  RH  077%=      5-min Rain = 0
KJU1 200517Z 20004KT 16/12 A2993 RMK A01 T01640124  RH  077%=      5-min Rain = 0
KJU1 200518Z 20005KT 16/12 A2993 RMK A01 T01640124  RH  077%=      5-min Rain = 0
KJU1 200519Z 21006KT 16/12 A2993 RMK A01 T01640124  RH  077%=      5-min Rain = 0
KJU1 200520Z 18005KT 17/12 A2993 RMK A01 T01650124  RH  077%=      5-min Rain = 0
KJU1 200521Z 19004KT 17/12 A2993 RMK A01 T01650124  RH  077%=      5-min Rain = 0
KJU1 200522Z 20004KT 17/12 A2993 RMK A01 T01650124  RH  077%=      5-min Rain = 0
KJU1 200523Z 19004KT 16/12 A2993 RMK A01 T01640124  RH  077%=      5-min Rain = 0
KJU1 200524Z 18004KT 16/12 A2993 RMK A01 T01640124  RH  077%=      5-min Rain = 0
KJU1 200525Z 19004KT 17/13 A2993 RMK A01 T01650125  RH  077%=      5-min Rain = 0
KJU1 200526Z 18005KT 17/12 A2993 RMK A01 T01650124  RH  077%=      5-min Rain = 0
KJU1 200527Z 17006KT 17/13 A2993 RMK A01 T01660125  RH  077%=      5-min Rain = 0
KJU1 200528Z 19004KT 17/13 A2993 RMK A01 T01660125  RH  077%=      5-min Rain = 0
KJU1 200529Z 18005KT 17/13 A2993 RMK A01 T01660125  RH  076%=      5-min Rain = 0
KJU1 200530Z 18005KT 17/13 A2993 RMK A01 T01660125  RH  077%=      5-min Rain = 0
KJU1 200531Z 18005KT 17/13 A2993 RMK A01 T01660126  RH  077%=      5-min Rain = 0
KJU1 200532Z 18005KT 17/13 A2993 RMK A01 T01660125  RH  077%=      5-min Rain = 0
KJU1 200533Z 19004KT 17/13 A2993 RMK A01 T01670126  RH  077%=      5-min Rain = 0
KJU1 200534Z 19005KT 17/13 A2993 RMK A01 T01660125  RH  077%=      5-min Rain = 0
KJU1 200535Z 17006KT 17/13 A2993 RMK A01 T01670126  RH  077%=      5-min Rain = 0
KJU1 200536Z 18006KT 17/13 A2992 RMK A01 T01670126  RH  077%=      5-min Rain = 0
KJU1 200537Z 19006KT 17/13 A2992 RMK A01 T01680127  RH  077%=      5-min Rain = 0
KJU1 200538Z 18006KT 17/13 A2992 RMK A01 T01690127  RH  076%=      5-min Rain = 0
KJU1 200539Z 18005KT 17/13 A2992 RMK A01 T01690127  RH  076%=      5-min Rain = 0
KJU1 200540Z 19006KT 17/13 A2993 RMK A01 T01700127  RH  076%=      5-min Rain = 0
KJU1 200541Z 20005KT 17/13 A2993 RMK A01 T01690127  RH  076%=      5-min Rain = 0
KJU1 200542Z 18007KT 17/13 A2993 RMK A01 T01700127  RH  076%=      5-min Rain = 0
KJU1 200543Z 17005KT 17/13 A2993 RMK A01 T01690127  RH  076%=      5-min Rain = 0
KJU1 200544Z 19005KT 17/13 A2993 RMK A01 T01700127  RH  076%=      5-min Rain = 0
KJU1 200545Z 19005KT 17/13 A2993 RMK A01 T01690127  RH  076%=      5-min Rain = 0
KJU1 200546Z 18006KT 17/13 A2993 RMK A01 T01690127  RH  076%=      5-min Rain = 0
KJU1 200547Z 18007KT 17/13 A2993 RMK A01 T01690127  RH  076%=      5-min Rain = 0
KJU1 200548Z 18007KT 17/13 A2993 RMK A01 T01690127  RH  076%=      5-min Rain = 0
KJU1 200549Z 20006KT 17/13 A2993 RMK A01 T01690127  RH  076%=      5-min Rain = 0
KJU1 200550Z 18006KT 17/13 A2993 RMK A01 T01690127  RH  076%=      5-min Rain = 0
KJU1 200551Z 18006KT 17/13 A2993 RMK A01 T01690127  RH  076%=      5-min Rain = 0
KJU1 200552Z 19005KT 17/13 A2993 RMK A01 T01700127  RH  076%=      5-min Rain = 0
KJU1 200553Z 18007KT 17/13 A2993 RMK A01 T01700128  RH  076%=      5-min Rain = 0
KJU1 200554Z 19007KT 17/13 A2993 RMK A01 T01710128  RH  075%=      5-min Rain = 0
KJU1 200555Z 20004KT 17/13 A2993 RMK A01 T01710127  RH  075%=      5-min Rain = 0
KJU1 200556Z 20005KT 17/13 A2993 RMK A01 T01710127  RH  075%=      5-min Rain = 0
KJU1 200557Z 19005KT 17/13 A2993 RMK A01 T01700127  RH  076%=      5-min Rain = 0
KJU1 200558Z 18006KT 17/13 A2993 RMK A01 T01690127  RH  076%=      5-min Rain = 0
KJU1 200559Z 18006KT 17/13 A2993 RMK A01 T01690127  RH  076%=      5-min Rain = 0

Page generated in 0.1189 seconds.